Observation data for Hobbs on 11/09/2019      Previous  Date       Current Mesonet Observations  Soil Data  Daily Summary Page  Observations in Plain Language
KHO1 090600Z 22004KT 04/04 A3033 RMK A01 T00430043  RH  100%=      5-min Rain = 0
KHO1 090601Z 22004KT 04/04 A3033 RMK A01 T00430044  RH  100%=      5-min Rain = 0
KHO1 090602Z 22004KT 04/04 A3033 RMK A01 T00440044  RH  100%=      5-min Rain = 0
KHO1 090603Z 22005KT 04/04 A3033 RMK A01 T00440044  RH  100%=      5-min Rain = 0
KHO1 090604Z 22004KT 04/04 A3033 RMK A01 T00440044  RH  100%=      5-min Rain = 0
KHO1 090605Z 22005KT 04/04 A3033 RMK A01 T00440044  RH  100%=      5-min Rain = 0
KHO1 090606Z 22005KT 05/05 A3033 RMK A01 T00450045  RH  100%=      5-min Rain = 0
KHO1 090607Z 22004KT 05/05 A3033 RMK A01 T00450045  RH  100%=      5-min Rain = 0
KHO1 090608Z 22005KT 05/05 A3033 RMK A01 T00450045  RH  100%=      5-min Rain = 0
KHO1 090609Z 22004KT 05/05 A3033 RMK A01 T00450045  RH  100%=      5-min Rain = 0
KHO1 090610Z 22004KT 04/04 A3033 RMK A01 T00440044  RH  100%=      5-min Rain = 0
KHO1 090611Z 22005KT 04/04 A3033 RMK A01 T00440044  RH  100%=      5-min Rain = 0
KHO1 090612Z 22005KT 04/04 A3033 RMK A01 T00440044  RH  100%=      5-min Rain = 0
KHO1 090613Z 22005KT 04/04 A3033 RMK A01 T00440044  RH  100%=      5-min Rain = 0
KHO1 090614Z 22005KT 04/04 A3033 RMK A01 T00430044  RH  100%=      5-min Rain = 0
KHO1 090615Z 22005KT 04/04 A3033 RMK A01 T00440044  RH  100%=      5-min Rain = 0
KHO1 090616Z 22005KT 04/04 A3033 RMK A01 T00440044  RH  100%=      5-min Rain = 0
KHO1 090617Z 22005KT 04/04 A3033 RMK A01 T00440044  RH  100%=      5-min Rain = 0
KHO1 090618Z 23005KT 05/05 A3033 RMK A01 T00450045  RH  100%=      5-min Rain = 0
KHO1 090619Z 23005KT 05/05 A3033 RMK A01 T00450045  RH  100%=      5-min Rain = 0
KHO1 090620Z 23006KT 05/05 A3033 RMK A01 T00460046  RH  100%=      5-min Rain = 0
KHO1 090621Z 23005KT 05/05 A3033 RMK A01 T00460046  RH  100%=      5-min Rain = 0
KHO1 090622Z 23005KT 05/05 A3033 RMK A01 T00460046  RH  100%=      5-min Rain = 0
KHO1 090623Z 22005KT 05/05 A3033 RMK A01 T00460046  RH  100%=      5-min Rain = 0
KHO1 090624Z 22005KT 05/05 A3033 RMK A01 T00460046  RH  100%=      5-min Rain = 0
KHO1 090625Z 23005KT 05/05 A3033 RMK A01 T00460046  RH  100%=      5-min Rain = 0
KHO1 090626Z 23005KT 05/05 A3033 RMK A01 T00460046  RH  100%=      5-min Rain = 0
KHO1 090627Z 23006KT 05/05 A3032 RMK A01 T00460046  RH  100%=      5-min Rain = 0
KHO1 090628Z 22005KT 05/05 A3033 RMK A01 T00460046  RH  100%=      5-min Rain = 0
KHO1 090629Z 23005KT 05/05 A3033 RMK A01 T00450045  RH  100%=      5-min Rain = 0
KHO1 090630Z 24005KT 05/05 A3033 RMK A01 T00450045  RH  100%=      5-min Rain = 0
KHO1 090631Z 25004KT 05/05 A3033 RMK A01 T00450045  RH  100%=      5-min Rain = 0
KHO1 090632Z 26004KT 04/04 A3033 RMK A01 T00440044  RH  100%=      5-min Rain = 0
KHO1 090633Z 26004KT 04/04 A3033 RMK A01 T00420043  RH  100%=      5-min Rain = 0
KHO1 090634Z 26004KT 04/04 A3033 RMK A01 T00410041  RH  100%=      5-min Rain = 0
KHO1 090635Z 26003KT 04/04 A3033 RMK A01 T00410041  RH  100%=      5-min Rain = 0
KHO1 090636Z 26003KT 04/04 A3033 RMK A01 T00400040  RH  100%=      5-min Rain = 0
KHO1 090637Z 26004KT 04/04 A3033 RMK A01 T00390039  RH  100%=      5-min Rain = 0
KHO1 090638Z 26004KT 04/04 A3033 RMK A01 T00390039  RH  100%=      5-min Rain = 0
KHO1 090639Z 27004KT 04/04 A3033 RMK A01 T00380038  RH  100%=      5-min Rain = 0
KHO1 090640Z 27004KT 04/04 A3033 RMK A01 T00380038  RH  100%=      5-min Rain = 0
KHO1 090641Z 28004KT 04/04 A3033 RMK A01 T00380038  RH  100%=      5-min Rain = 0
KHO1 090642Z 28004KT 04/04 A3033 RMK A01 T00380038  RH  100%=      5-min Rain = 0
KHO1 090643Z 27004KT 04/04 A3033 RMK A01 T00380038  RH  100%=      5-min Rain = 0
KHO1 090644Z 26004KT 04/04 A3032 RMK A01 T00380038  RH  100%=      5-min Rain = 0
KHO1 090645Z 25004KT 04/04 A3032 RMK A01 T00380038  RH  100%=      5-min Rain = 0
KHO1 090646Z 25004KT 04/04 A3032 RMK A01 T00380038  RH  100%=      5-min Rain = 0
KHO1 090647Z 25004KT 04/04 A3032 RMK A01 T00380038  RH  100%=      5-min Rain = 0
KHO1 090648Z 25004KT 04/04 A3033 RMK A01 T00380038  RH  100%=      5-min Rain = 0
KHO1 090649Z 25004KT 04/04 A3032 RMK A01 T00380038  RH  100%=      5-min Rain = 0
KHO1 090650Z 25004KT 04/04 A3032 RMK A01 T00380038  RH  100%=      5-min Rain = 0
KHO1 090651Z 24005KT 04/04 A3032 RMK A01 T00380038  RH  100%=      5-min Rain = 0
KHO1 090652Z 24004KT 04/04 A3032 RMK A01 T00380038  RH  100%=      5-min Rain = 0
KHO1 090653Z 24004KT 04/04 A3032 RMK A01 T00370037  RH  100%=      5-min Rain = 0
KHO1 090654Z 24004KT 04/04 A3032 RMK A01 T00370037  RH  100%=      5-min Rain = 0
KHO1 090655Z 25004KT 04/04 A3032 RMK A01 T00370037  RH  100%=      5-min Rain = 0
KHO1 090656Z 25004KT 04/04 A3032 RMK A01 T00370037  RH  100%=      5-min Rain = 0
KHO1 090657Z 26004KT 04/04 A3032 RMK A01 T00370037  RH  100%=      5-min Rain = 0
KHO1 090658Z 26004KT 04/04 A3032 RMK A01 T00370037  RH  100%=      5-min Rain = 0
KHO1 090659Z 26004KT 04/04 A3032 RMK A01 T00370037  RH  100%=      5-min Rain = 0
KHO1 090700Z 26004KT 04/04 A3032 RMK A01 T00370037  RH  100%=      5-min Rain = 0
KHO1 090701Z 26004KT 04/04 A3032 RMK A01 T00380038  RH  100%=      5-min Rain = 0
KHO1 090702Z 26004KT 04/04 A3032 RMK A01 T00380038  RH  100%=      5-min Rain = 0
KHO1 090703Z 26003KT 04/04 A3032 RMK A01 T00380038  RH  100%=      5-min Rain = 0
KHO1 090704Z 27003KT 04/04 A3032 RMK A01 T00380038  RH  100%=      5-min Rain = 0
KHO1 090705Z 28003KT 04/04 A3032 RMK A01 T00380038  RH  100%=      5-min Rain = 0
KHO1 090706Z 27003KT 04/04 A3032 RMK A01 T00390039  RH  100%=      5-min Rain = 0
KHO1 090707Z 27003KT 04/04 A3032 RMK A01 T00390039  RH  100%=      5-min Rain = 0
KHO1 090708Z 26003KT 04/04 A3032 RMK A01 T00400040  RH  100%=      5-min Rain = 0
KHO1 090709Z 27003KT 04/04 A3032 RMK A01 T00400040  RH  100%=      5-min Rain = 0
KHO1 090710Z 27003KT 04/04 A3032 RMK A01 T00400040  RH  100%=      5-min Rain = 0
KHO1 090711Z 27002KT 04/04 A3032 RMK A01 T00400040  RH  100%=      5-min Rain = 0
KHO1 090712Z 28002KT 04/04 A3032 RMK A01 T00400040  RH  100%=      5-min Rain = 0
KHO1 090713Z 29002KT 04/04 A3032 RMK A01 T00400040  RH  100%=      5-min Rain = 0
KHO1 090714Z 30002KT 04/04 A3032 RMK A01 T00400040  RH  100%=      5-min Rain = 0
KHO1 090715Z 30002KT 04/04 A3032 RMK A01 T00400040  RH  100%=      5-min Rain = 0
KHO1 090720Z 29003KT 04/04 A3032 RMK A01 T00400040  RH  100%=      5-min Rain = 0
KHO1 090721Z 29003KT 04/04 A3032 RMK A01 T00400040  RH  100%=      5-min Rain = 0
KHO1 090722Z 29003KT 04/04 A3032 RMK A01 T00400040  RH  100%=      5-min Rain = 0
KHO1 090723Z 29003KT 04/04 A3032 RMK A01 T00390040  RH  100%=      5-min Rain = 0
KHO1 090724Z 28003KT 04/04 A3032 RMK A01 T00390039  RH  100%=      5-min Rain = 0
KHO1 090725Z 28003KT 04/04 A3032 RMK A01 T00390039  RH  100%=      5-min Rain = 0
KHO1 090726Z 29003KT 04/04 A3031 RMK A01 T00390039  RH  100%=      5-min Rain = 0
KHO1 090727Z 28002KT 04/04 A3031 RMK A01 T00390039  RH  100%=      5-min Rain = 0
KHO1 090728Z 28003KT 04/04 A3031 RMK A01 T00390039  RH  100%=      5-min Rain = 0
KHO1 090729Z 28002KT 04/04 A3031 RMK A01 T00390039  RH  100%=      5-min Rain = 0
KHO1 090730Z 29003KT 04/04 A3031 RMK A01 T00390039  RH  100%=      5-min Rain = 0
KHO1 090731Z 29003KT 04/04 A3031 RMK A01 T00390039  RH  100%=      5-min Rain = 0
KHO1 090732Z 29002KT 04/04 A3031 RMK A01 T00390039  RH  100%=      5-min Rain = 0
KHO1 090733Z 29002KT 04/04 A3031 RMK A01 T00390039  RH  100%=      5-min Rain = 0
KHO1 090734Z 29002KT 04/04 A3031 RMK A01 T00390039  RH  100%=      5-min Rain = 0
KHO1 090735Z 30002KT 04/04 A3031 RMK A01 T00390039  RH  100%=      5-min Rain = 0
KHO1 090736Z 29002KT 04/04 A3031 RMK A01 T00390039  RH  100%=      5-min Rain = 0
KHO1 090737Z 29002KT 04/04 A3031 RMK A01 T00390039  RH  100%=      5-min Rain = 0
KHO1 090738Z 29002KT 04/04 A3031 RMK A01 T00390039  RH  100%=      5-min Rain = 0
KHO1 090739Z 29002KT 04/04 A3031 RMK A01 T00390039  RH  100%=      5-min Rain = 0
KHO1 090740Z 30002KT 04/04 A3031 RMK A01 T00390039  RH  100%=      5-min Rain = 0
KHO1 090741Z 30002KT 04/04 A3031 RMK A01 T00390039  RH  100%=      5-min Rain = 0
KHO1 090742Z 30002KT 04/04 A3031 RMK A01 T00380038  RH  100%=      5-min Rain = 0
KHO1 090743Z 30002KT 04/04 A3031 RMK A01 T00380038  RH  100%=      5-min Rain = 0
KHO1 090744Z 30002KT 04/04 A3031 RMK A01 T00380038  RH  100%=      5-min Rain = 0
KHO1 090745Z 29002KT 04/04 A3031 RMK A01 T00380038  RH  100%=      5-min Rain = 0
KHO1 090746Z 29002KT 04/04 A3031 RMK A01 T00380038  RH  100%=      5-min Rain = 0
KHO1 090747Z 29002KT 04/04 A3031 RMK A01 T00380038  RH  100%=      5-min Rain = 0
KHO1 090748Z 29002KT 04/04 A3031 RMK A01 T00380038  RH  100%=      5-min Rain = 0
KHO1 090749Z 30002KT 04/04 A3031 RMK A01 T00380038  RH  100%=      5-min Rain = 0
KHO1 090750Z 30002KT 04/04 A3031 RMK A01 T00380038  RH  100%=      5-min Rain = 0
KHO1 090751Z 30002KT 04/04 A3031 RMK A01 T00380038  RH  100%=      5-min Rain = 0
KHO1 090752Z 30002KT 04/04 A3031 RMK A01 T00380038  RH  100%=      5-min Rain = 0
KHO1 090753Z 30002KT 04/04 A3031 RMK A01 T00380038  RH  100%=      5-min Rain = 0
KHO1 090754Z 30002KT 04/04 A3031 RMK A01 T00380038  RH  100%=      5-min Rain = 0
KHO1 090755Z 30001KT 04/04 A3031 RMK A01 T00380038  RH  100%=      5-min Rain = 0
KHO1 090756Z 30001KT 04/04 A3031 RMK A01 T00380038  RH  100%=      5-min Rain = 0
KHO1 090757Z 31002KT 04/04 A3031 RMK A01 T00380038  RH  100%=      5-min Rain = 0
KHO1 090758Z 31002KT 04/04 A3031 RMK A01 T00380038  RH  100%=      5-min Rain = 0
KHO1 090759Z 32002KT 04/04 A3031 RMK A01 T00380038  RH  100%=      5-min Rain = 0
KHO1 090800Z 32002KT 04/04 A3031 RMK A01 T00380038  RH  100%=      5-min Rain = 0
KHO1 090801Z 30002KT 04/04 A3031 RMK A01 T00380038  RH  100%=      5-min Rain = 0
KHO1 090802Z 30002KT 04/04 A3031 RMK A01 T00380038  RH  100%=      5-min Rain = 0
KHO1 090803Z 29002KT 04/04 A3031 RMK A01 T00380038  RH  100%=      5-min Rain = 0
KHO1 090804Z 28002KT 04/04 A3031 RMK A01 T00370037  RH  100%=      5-min Rain = 0
KHO1 090805Z 28002KT 04/04 A3031 RMK A01 T00370037  RH  100%=      5-min Rain = 0
KHO1 090806Z 28002KT 04/04 A3031 RMK A01 T00370037  RH  100%=      5-min Rain = 0
KHO1 090807Z 28002KT 04/04 A3031 RMK A01 T00370037  RH  100%=      5-min Rain = 0
KHO1 090808Z 28002KT 04/04 A3031 RMK A01 T00370037  RH  100%=      5-min Rain = 0
KHO1 090809Z 28002KT 04/04 A3031 RMK A01 T00370037  RH  100%=      5-min Rain = 0
KHO1 090810Z 28003KT 04/04 A3031 RMK A01 T00370037  RH  100%=      5-min Rain = 0
KHO1 090811Z 28003KT 04/04 A3031 RMK A01 T00370037  RH  100%=      5-min Rain = 0
KHO1 090812Z 28003KT 04/04 A3031 RMK A01 T00370037  RH  100%=      5-min Rain = 0
KHO1 090813Z 28003KT 04/04 A303 RMK A01 T00360036  RH  100%=      5-min Rain = 0
KHO1 090814Z 29003KT 04/04 A303 RMK A01 T00360036  RH  100%=      5-min Rain = 0
KHO1 090815Z 30003KT 04/04 A303 RMK A01 T00360036  RH  100%=      5-min Rain = 0
KHO1 090816Z 31003KT 04/04 A303 RMK A01 T00360036  RH  100%=      5-min Rain = 0
KHO1 090817Z 31003KT 04/04 A303 RMK A01 T00350035  RH  100%=      5-min Rain = 0
KHO1 090818Z 31003KT 03/03 A303 RMK A01 T00340034  RH  100%=      5-min Rain = 0
KHO1 090819Z 31003KT 03/03 A303 RMK A01 T00340034  RH  100%=      5-min Rain = 0
KHO1 090820Z 31003KT 03/03 A303 RMK A01 T00330033  RH  100%=      5-min Rain = 0
KHO1 090821Z 31003KT 03/03 A303 RMK A01 T00320032  RH  100%=      5-min Rain = 0
KHO1 090822Z 31003KT 03/03 A303 RMK A01 T00310031  RH  100%=      5-min Rain = 0
KHO1 090823Z 32003KT 03/03 A303 RMK A01 T00310031  RH  100%=      5-min Rain = 0
KHO1 090824Z 32003KT 03/03 A303 RMK A01 T00310031  RH  100%=      5-min Rain = 0
KHO1 090825Z 32003KT 03/03 A303 RMK A01 T00320032  RH  100%=      5-min Rain = 0
KHO1 090826Z 33003KT 03/03 A303 RMK A01 T00320032  RH  100%=      5-min Rain = 0
KHO1 090827Z 33003KT 03/03 A303 RMK A01 T00320032  RH  100%=      5-min Rain = 0
KHO1 090828Z 33004KT 03/03 A303 RMK A01 T00320032  RH  100%=      5-min Rain = 0
KHO1 090829Z 33004KT 03/03 A303 RMK A01 T00310031  RH  100%=      5-min Rain = 0
KHO1 090830Z 33003KT 03/03 A303 RMK A01 T00310031  RH  100%=      5-min Rain = 0
KHO1 090831Z 33003KT 03/03 A303 RMK A01 T00310031  RH  100%=      5-min Rain = 0
KHO1 090832Z 33003KT 03/03 A303 RMK A01 T00320032  RH  100%=      5-min Rain = 0
KHO1 090833Z 32003KT 03/03 A303 RMK A01 T00320032  RH  100%=      5-min Rain = 0
KHO1 090834Z 32002KT 03/03 A303 RMK A01 T00330033  RH  100%=      5-min Rain = 0
KHO1 090835Z 33002KT 03/03 A303 RMK A01 T00330033  RH  100%=      5-min Rain = 0
KHO1 090836Z 33002KT 03/03 A303 RMK A01 T00330033  RH  100%=      5-min Rain = 0
KHO1 090837Z 33002KT 03/03 A303 RMK A01 T00330033  RH  100%=      5-min Rain = 0
KHO1 090838Z 33002KT 03/03 A303 RMK A01 T00330033  RH  100%=      5-min Rain = 0
KHO1 090839Z 33002KT 03/03 A303 RMK A01 T00330033  RH  100%=      5-min Rain = 0
KHO1 090840Z 34002KT 03/03 A303 RMK A01 T00320032  RH  100%=      5-min Rain = 0
KHO1 090841Z 34001KT 03/03 A303 RMK A01 T00320032  RH  100%=      5-min Rain = 0
KHO1 090842Z 34001KT 03/03 A303 RMK A01 T00320032  RH  100%=      5-min Rain = 0
KHO1 090843Z 36002KT 03/03 A303 RMK A01 T00310031  RH  100%=      5-min Rain = 0
KHO1 090844Z 01003KT 03/03 A303 RMK A01 T00300030  RH  100%=      5-min Rain = 0
KHO1 090845Z 01003KT 03/03 A303 RMK A01 T00290029  RH  100%=      5-min Rain = 0
KHO1 090846Z 36002KT 03/03 A303 RMK A01 T00270027  RH  100%=      5-min Rain = 0
KHO1 090847Z 35002KT 03/03 A303 RMK A01 T00270027  RH  100%=      5-min Rain = 0
KHO1 090848Z 34002KT 03/03 A303 RMK A01 T00270027  RH  100%=      5-min Rain = 0
KHO1 090849Z 34001KT 03/03 A303 RMK A01 T00270027  RH  100%=      5-min Rain = 0
KHO1 090850Z 33001KT 03/03 A303 RMK A01 T00270027  RH  100%=      5-min Rain = 0
KHO1 090851Z 33002KT 03/03 A303 RMK A01 T00270027  RH  100%=      5-min Rain = 0
KHO1 090852Z 33002KT 03/03 A303 RMK A01 T00270027  RH  100%=      5-min Rain = 0
KHO1 090853Z 33002KT 03/03 A303 RMK A01 T00270027  RH  100%=      5-min Rain = 0
KHO1 090854Z 33001KT 03/03 A303 RMK A01 T00270027  RH  100%=      5-min Rain = 0
KHO1 090855Z 33001KT 03/03 A303 RMK A01 T00270027  RH  100%=      5-min Rain = 0
KHO1 090856Z 33002KT 03/03 A303 RMK A01 T00260026  RH  100%=      5-min Rain = 0
KHO1 090857Z 33002KT 03/03 A303 RMK A01 T00260026  RH  100%=      5-min Rain = 0
KHO1 090858Z 33001KT 03/03 A303 RMK A01 T00260026  RH  100%=      5-min Rain = 0
KHO1 090859Z 33001KT 03/03 A303 RMK A01 T00260026  RH  100%=      5-min Rain = 0
KHO1 090900Z 33001KT 03/03 A303 RMK A01 T00260026  RH  100%=      5-min Rain = 0
KHO1 090901Z 34001KT 03/03 A303 RMK A01 T00260026  RH  100%=      5-min Rain = 0
KHO1 090902Z 34002KT 03/03 A303 RMK A01 T00260026  RH  100%=      5-min Rain = 0
KHO1 090903Z 34002KT 03/03 A303 RMK A01 T00260026  RH  100%=      5-min Rain = 0
KHO1 090904Z 34002KT 03/03 A303 RMK A01 T00260026  RH  100%=      5-min Rain = 0
KHO1 090905Z 34002KT 03/03 A303 RMK A01 T00260026  RH  100%=      5-min Rain = 0
KHO1 090906Z 34002KT 03/03 A303 RMK A01 T00250025  RH  100%=      5-min Rain = 0
KHO1 090907Z 34002KT 03/03 A303 RMK A01 T00250025  RH  100%=      5-min Rain = 0
KHO1 090908Z 34002KT 03/03 A303 RMK A01 T00250025  RH  100%=      5-min Rain = 0
KHO1 090909Z 34002KT 03/03 A303 RMK A01 T00250025  RH  100%=      5-min Rain = 0
KHO1 090910Z 34001KT 02/02 A303 RMK A01 T00240024  RH  100%=      5-min Rain = 0
KHO1 090911Z 33001KT 02/02 A303 RMK A01 T00240024  RH  100%=      5-min Rain = 0
KHO1 090912Z 33001KT 02/02 A303 RMK A01 T00230023  RH  100%=      5-min Rain = 0
KHO1 090913Z 33001KT 02/02 A303 RMK A01 T00230023  RH  100%=      5-min Rain = 0
KHO1 090914Z 33001KT 02/02 A303 RMK A01 T00220022  RH  100%=      5-min Rain = 0
KHO1 090915Z 33001KT 02/02 A3029 RMK A01 T00220022  RH  100%=      5-min Rain = 0
KHO1 090916Z 33001KT 02/02 A3029 RMK A01 T00220022  RH  100%=      5-min Rain = 0
KHO1 090917Z 32002KT 02/02 A3029 RMK A01 T00210021  RH  100%=      5-min Rain = 0
KHO1 090918Z 31002KT 02/02 A3029 RMK A01 T00210022  RH  100%=      5-min Rain = 0
KHO1 090919Z 30002KT 02/02 A3029 RMK A01 T00210021  RH  100%=      5-min Rain = 0
KHO1 090920Z 30002KT 02/02 A3029 RMK A01 T00210021  RH  100%=      5-min Rain = 0
KHO1 090921Z 30002KT 02/02 A303 RMK A01 T00210021  RH  100%=      5-min Rain = 0
KHO1 090922Z 30001KT 02/02 A303 RMK A01 T00210021  RH  100%=      5-min Rain = 0
KHO1 090923Z 30001KT 02/02 A303 RMK A01 T00210021  RH  100%=      5-min Rain = 0
KHO1 090924Z 30002KT 02/02 A303 RMK A01 T00200020  RH  100%=      5-min Rain = 0
KHO1 090925Z 30002KT 02/02 A303 RMK A01 T00200020  RH  100%=      5-min Rain = 0
KHO1 090926Z 30002KT 02/02 A303 RMK A01 T00200020  RH  100%=      5-min Rain = 0
KHO1 090927Z 30002KT 02/02 A303 RMK A01 T00200020  RH  100%=      5-min Rain = 0
KHO1 090928Z 30002KT 02/02 A3029 RMK A01 T00200020  RH  100%=      5-min Rain = 0
KHO1 090929Z 30001KT 02/02 A303 RMK A01 T00200020  RH  100%=      5-min Rain = 0
KHO1 090930Z 30001KT 02/02 A3029 RMK A01 T00190019  RH  100%=      5-min Rain = 0
KHO1 090931Z 30001KT 02/02 A3029 RMK A01 T00190019  RH  100%=      5-min Rain = 0
KHO1 090932Z 30001KT 02/02 A3029 RMK A01 T00180018  RH  100%=      5-min Rain = 0
KHO1 090933Z 30001KT 02/02 A3029 RMK A01 T00180018  RH  100%=      5-min Rain = 0
KHO1 090934Z 30001KT 02/02 A3029 RMK A01 T00180018  RH  100%=      5-min Rain = 0
KHO1 090935Z 30001KT 02/02 A3029 RMK A01 T00180018  RH  100%=      5-min Rain = 0
KHO1 090936Z 30001KT 02/02 A3029 RMK A01 T00180018  RH  100%=      5-min Rain = 0
KHO1 090937Z 30001KT 02/02 A3029 RMK A01 T00170017  RH  100%=      5-min Rain = 0
KHO1 090938Z 30001KT 02/02 A3029 RMK A01 T00170018  RH  100%=      5-min Rain = 0
KHO1 090939Z 30001KT 02/02 A3029 RMK A01 T00180018  RH  100%=      5-min Rain = 0
KHO1 090940Z 30001KT 02/02 A3029 RMK A01 T00180018  RH  100%=      5-min Rain = 0
KHO1 090941Z 30001KT 02/02 A3029 RMK A01 T00180018  RH  100%=      5-min Rain = 0
KHO1 090942Z 30001KT 02/02 A3029 RMK A01 T00180018  RH  100%=      5-min Rain = 0
KHO1 090943Z 30001KT 02/02 A3029 RMK A01 T00180018  RH  100%=      5-min Rain = 0
KHO1 090944Z 30000KT 02/02 A3029 RMK A01 T00180018  RH  100%=      5-min Rain = 0
KHO1 090945Z 30001KT 02/02 A3029 RMK A01 T00180018  RH  100%=      5-min Rain = 0
KHO1 090946Z 30001KT 02/02 A3029 RMK A01 T00180018  RH  100%=      5-min Rain = 0
KHO1 090947Z 30002KT 02/02 A3029 RMK A01 T00180018  RH  100%=      5-min Rain = 0
KHO1 090948Z 30002KT 02/02 A3029 RMK A01 T00170017  RH  100%=      5-min Rain = 0
KHO1 090949Z 30002KT 02/02 A3029 RMK A01 T00170017  RH  100%=      5-min Rain = 0
KHO1 090950Z 29002KT 02/02 A3029 RMK A01 T00170017  RH  100%=      5-min Rain = 0
KHO1 090951Z 29002KT 02/02 A3029 RMK A01 T00170017  RH  100%=      5-min Rain = 0
KHO1 090952Z 29002KT 02/02 A3029 RMK A01 T00170017  RH  100%=      5-min Rain = 0
KHO1 090953Z 29002KT 02/02 A3029 RMK A01 T00170017  RH  100%=      5-min Rain = 0
KHO1 090954Z 29002KT 02/02 A3029 RMK A01 T00170017  RH  100%=      5-min Rain = 0
KHO1 090955Z 28002KT 02/02 A3029 RMK A01 T00180018  RH  100%=      5-min Rain = 0
KHO1 090956Z 28003KT 02/02 A3029 RMK A01 T00180018  RH  100%=      5-min Rain = 0
KHO1 090957Z 28003KT 02/02 A3029 RMK A01 T00190019  RH  100%=      5-min Rain = 0
KHO1 090958Z 28002KT 02/02 A3029 RMK A01 T00190019  RH  100%=      5-min Rain = 0
KHO1 090959Z 28002KT 02/02 A3029 RMK A01 T00190019  RH  100%=      5-min Rain = 0
KHO1 091000Z 28002KT 02/02 A3029 RMK A01 T00190019  RH  100%=      5-min Rain = 0
KHO1 091001Z 28002KT 02/02 A3029 RMK A01 T00190019  RH  100%=      5-min Rain = 0
KHO1 091002Z 28002KT 02/02 A3029 RMK A01 T00190019  RH  100%=      5-min Rain = 0
KHO1 091003Z 28002KT 02/02 A3029 RMK A01 T00190019  RH  100%=      5-min Rain = 0
KHO1 091004Z 28002KT 02/02 A3029 RMK A01 T00190019  RH  100%=      5-min Rain = 0
KHO1 091005Z 28003KT 02/02 A3029 RMK A01 T00190019  RH  100%=      5-min Rain = 0
KHO1 091006Z 28003KT 02/02 A3029 RMK A01 T00190019  RH  100%=      5-min Rain = 0
KHO1 091007Z 28002KT 02/02 A3029 RMK A01 T00190019  RH  100%=      5-min Rain = 0
KHO1 091008Z 28002KT 02/02 A3029 RMK A01 T00190019  RH  100%=      5-min Rain = 0
KHO1 091009Z 28002KT 02/02 A3029 RMK A01 T00190019  RH  100%=      5-min Rain = 0
KHO1 091010Z 28002KT 02/02 A3029 RMK A01 T00190019  RH  100%=      5-min Rain = 0
KHO1 091011Z 28001KT 02/02 A3029 RMK A01 T00190019  RH  100%=      5-min Rain = 0
KHO1 091012Z 28001KT 02/02 A3029 RMK A01 T00190019  RH  100%=      5-min Rain = 0
KHO1 091013Z 28002KT 02/02 A3029 RMK A01 T00190019  RH  100%=      5-min Rain = 0
KHO1 091014Z 28002KT 02/02 A3029 RMK A01 T00190019  RH  100%=      5-min Rain = 0
KHO1 091015Z 28002KT 02/02 A3029 RMK A01 T00190019  RH  100%=      5-min Rain = 0
KHO1 091016Z 28002KT 02/02 A3029 RMK A01 T00190019  RH  100%=      5-min Rain = 0
KHO1 091017Z 28002KT 02/02 A3029 RMK A01 T00190019  RH  100%=      5-min Rain = 0
KHO1 091018Z 30002KT 02/02 A3029 RMK A01 T00190019  RH  100%=      5-min Rain = 0
KHO1 091019Z 31002KT 02/02 A3029 RMK A01 T00190019  RH  100%=      5-min Rain = 0
KHO1 091020Z 31002KT 02/02 A3029 RMK A01 T00190019  RH  100%=      5-min Rain = 0
KHO1 091021Z 30002KT 02/02 A3029 RMK A01 T00200020  RH  100%=      5-min Rain = 0
KHO1 091022Z 30002KT 02/02 A3029 RMK A01 T00200020  RH  100%=      5-min Rain = 0
KHO1 091023Z 30002KT 02/02 A3029 RMK A01 T00200020  RH  100%=      5-min Rain = 0
KHO1 091024Z 30002KT 02/02 A3029 RMK A01 T00200020  RH  100%=      5-min Rain = 0
KHO1 091025Z 30002KT 02/02 A3029 RMK A01 T00200020  RH  100%=      5-min Rain = 0
KHO1 091026Z 30002KT 02/02 A3029 RMK A01 T00200020  RH  100%=      5-min Rain = 0
KHO1 091027Z 31002KT 02/02 A3029 RMK A01 T00200020  RH  100%=      5-min Rain = 0
KHO1 091028Z 31003KT 02/02 A3029 RMK A01 T00200020  RH  100%=      5-min Rain = 0
KHO1 091029Z 31003KT 02/02 A3029 RMK A01 T00200020  RH  100%=      5-min Rain = 0
KHO1 091030Z 31002KT 02/02 A3029 RMK A01 T00200020  RH  100%=      5-min Rain = 0
KHO1 091031Z 31003KT 02/02 A3029 RMK A01 T00200020  RH  100%=      5-min Rain = 0
KHO1 091032Z 32003KT 02/02 A3029 RMK A01 T00200020  RH  100%=      5-min Rain = 0
KHO1 091033Z 32003KT 02/02 A3029 RMK A01 T00190019  RH  100%=      5-min Rain = 0
KHO1 091034Z 32002KT 02/02 A3029 RMK A01 T00200020  RH  100%=      5-min Rain = 0
KHO1 091035Z 31002KT 02/02 A3029 RMK A01 T00200020  RH  100%=      5-min Rain = 0
KHO1 091036Z 31003KT 02/02 A3029 RMK A01 T00200020  RH  100%=      5-min Rain = 0
KHO1 091037Z 31003KT 02/02 A3029 RMK A01 T00200020  RH  100%=      5-min Rain = 0
KHO1 091038Z 30003KT 02/02 A3029 RMK A01 T00210021  RH  100%=      5-min Rain = 0
KHO1 091039Z 30003KT 02/02 A3029 RMK A01 T00210021  RH  100%=      5-min Rain = 0
KHO1 091040Z 30003KT 02/02 A3029 RMK A01 T00200020  RH  100%=      5-min Rain = 0
KHO1 091041Z 30003KT 02/02 A3029 RMK A01 T00200020  RH  100%=      5-min Rain = 0
KHO1 091042Z 30003KT 02/02 A3029 RMK A01 T00190019  RH  100%=      5-min Rain = 0
KHO1 091043Z 30003KT 02/02 A3029 RMK A01 T00190019  RH  100%=      5-min Rain = 0
KHO1 091044Z 30003KT 02/02 A3029 RMK A01 T00190019  RH  100%=      5-min Rain = 0
KHO1 091045Z 30003KT 02/02 A3029 RMK A01 T00190019  RH  100%=      5-min Rain = 0
KHO1 091046Z 30004KT 02/02 A3029 RMK A01 T00190019  RH  100%=      5-min Rain = 0
KHO1 091047Z 29004KT 02/02 A3029 RMK A01 T00190019  RH  100%=      5-min Rain = 0
KHO1 091048Z 29004KT 02/02 A3029 RMK A01 T00190019  RH  100%=      5-min Rain = 0
KHO1 091049Z 29004KT 02/02 A3029 RMK A01 T00190019  RH  100%=      5-min Rain = 0
KHO1 091050Z 29004KT 02/02 A3029 RMK A01 T00200020  RH  100%=      5-min Rain = 0
KHO1 091051Z 29004KT 02/02 A3029 RMK A01 T00200020  RH  100%=      5-min Rain = 0
KHO1 091052Z 30004KT 02/02 A3029 RMK A01 T00210021  RH  100%=      5-min Rain = 0
KHO1 091053Z 29004KT 02/02 A3029 RMK A01 T00210021  RH  100%=      5-min Rain = 0
KHO1 091054Z 30004KT 02/02 A3029 RMK A01 T00210021  RH  100%=      5-min Rain = 0
KHO1 091055Z 30004KT 02/02 A3029 RMK A01 T00210021  RH  100%=      5-min Rain = 0
KHO1 091056Z 30004KT 02/02 A3029 RMK A01 T00200020  RH  100%=      5-min Rain = 0
KHO1 091057Z 29004KT 02/02 A3029 RMK A01 T00200020  RH  100%=      5-min Rain = 0
KHO1 091058Z 29004KT 02/02 A3029 RMK A01 T00200020  RH  100%=      5-min Rain = 0
KHO1 091059Z 29004KT 02/02 A3028 RMK A01 T00200020  RH  100%=      5-min Rain = 0
KHO1 091100Z 29004KT 02/02 A3028 RMK A01 T00200020  RH  100%=      5-min Rain = 0
KHO1 091101Z 29003KT 02/02 A3028 RMK A01 T00200020  RH  100%=      5-min Rain = 0
KHO1 091102Z 29003KT 02/02 A3028 RMK A01 T00210021  RH  100%=      5-min Rain = 0
KHO1 091103Z 29003KT 02/02 A3028 RMK A01 T00210021  RH  100%=      5-min Rain = 0
KHO1 091104Z 29003KT 02/02 A3028 RMK A01 T00210021  RH  100%=      5-min Rain = 0
KHO1 091105Z 29004KT 02/02 A3028 RMK A01 T00220022  RH  100%=      5-min Rain = 0
KHO1 091106Z 29003KT 02/02 A3028 RMK A01 T00220022  RH  100%=      5-min Rain = 0
KHO1 091107Z 29004KT 02/02 A3028 RMK A01 T00220022  RH  100%=      5-min Rain = 0
KHO1 091108Z 29003KT 02/02 A3028 RMK A01 T00220022  RH  100%=      5-min Rain = 0
KHO1 091109Z 29003KT 02/02 A3028 RMK A01 T00220022  RH  100%=      5-min Rain = 0
KHO1 091110Z 29003KT 02/02 A3028 RMK A01 T00220022  RH  100%=      5-min Rain = 0
KHO1 091111Z 30003KT 02/02 A3028 RMK A01 T00220022  RH  100%=      5-min Rain = 0
KHO1 091112Z 30003KT 02/02 A3028 RMK A01 T00210021  RH  100%=      5-min Rain = 0
KHO1 091113Z 31003KT 02/02 A3029 RMK A01 T00210021  RH  100%=      5-min Rain = 0
KHO1 091114Z 31003KT 02/02 A3028 RMK A01 T00210021  RH  100%=      5-min Rain = 0
KHO1 091115Z 31003KT 02/02 A3028 RMK A01 T00200020  RH  100%=      5-min Rain = 0
KHO1 091116Z 31003KT 02/02 A3029 RMK A01 T00210021  RH  100%=      5-min Rain = 0
KHO1 091117Z 31002KT 02/02 A3029 RMK A01 T00210021  RH  100%=      5-min Rain = 0
KHO1 091118Z 31002KT 02/02 A3029 RMK A01 T00200020  RH  100%=      5-min Rain = 0
KHO1 091119Z 30003KT 02/02 A3029 RMK A01 T00200020  RH  100%=      5-min Rain = 0
KHO1 091120Z 30003KT 02/02 A3029 RMK A01 T00200020  RH  100%=      5-min Rain = 0
KHO1 091121Z 30003KT 02/02 A3029 RMK A01 T00200020  RH  100%=      5-min Rain = 0
KHO1 091122Z 30003KT 02/02 A3029 RMK A01 T00200020  RH  100%=      5-min Rain = 0
KHO1 091123Z 30003KT 02/02 A3029 RMK A01 T00200020  RH  100%=      5-min Rain = 0
KHO1 091124Z 30003KT 02/02 A3029 RMK A01 T00200020  RH  100%=      5-min Rain = 0
KHO1 091125Z 30003KT 02/02 A3029 RMK A01 T00210021  RH  100%=      5-min Rain = 0
KHO1 091126Z 29003KT 02/02 A3029 RMK A01 T00210021  RH  100%=      5-min Rain = 0
KHO1 091127Z 29003KT 02/02 A3029 RMK A01 T00220022  RH  100%=      5-min Rain = 0
KHO1 091128Z 29003KT 02/02 A3029 RMK A01 T00220022  RH  100%=      5-min Rain = 0
KHO1 091129Z 29003KT 02/02 A3029 RMK A01 T00230023  RH  100%=      5-min Rain = 0
KHO1 091130Z 29003KT 02/02 A3029 RMK A01 T00240024  RH  100%=      5-min Rain = 0
KHO1 091131Z 29003KT 02/02 A3029 RMK A01 T00240024  RH  100%=      5-min Rain = 0
KHO1 091132Z 29003KT 02/02 A3029 RMK A01 T00240024  RH  100%=      5-min Rain = 0
KHO1 091133Z 29003KT 02/02 A3029 RMK A01 T00240024  RH  100%=      5-min Rain = 0
KHO1 091134Z 30003KT 02/02 A3029 RMK A01 T00240024  RH  100%=      5-min Rain = 0
KHO1 091135Z 30003KT 02/02 A3029 RMK A01 T00240024  RH  100%=      5-min Rain = 0
KHO1 091136Z 29003KT 02/02 A3029 RMK A01 T00230024  RH  100%=      5-min Rain = 0
KHO1 091137Z 29002KT 02/02 A3029 RMK A01 T00230023  RH  100%=      5-min Rain = 0
KHO1 091138Z 28003KT 02/02 A3029 RMK A01 T00230023  RH  100%=      5-min Rain = 0
KHO1 091139Z 28002KT 02/02 A3029 RMK A01 T00230023  RH  100%=      5-min Rain = 0
KHO1 091140Z 30003KT 02/02 A3029 RMK A01 T00230023  RH  100%=      5-min Rain = 0
KHO1 091141Z 30003KT 02/02 A3029 RMK A01 T00230023  RH  100%=      5-min Rain = 0
KHO1 091142Z 30003KT 02/02 A3029 RMK A01 T00230023  RH  100%=      5-min Rain = 0
KHO1 091143Z 29004KT 02/02 A3029 RMK A01 T00230023  RH  100%=      5-min Rain = 0
KHO1 091144Z 29003KT 02/02 A3029 RMK A01 T00230023  RH  100%=      5-min Rain = 0
KHO1 091145Z 30004KT 02/02 A3029 RMK A01 T00230023  RH  100%=      5-min Rain = 0
KHO1 091146Z 30003KT 02/02 A3029 RMK A01 T00230023  RH  100%=      5-min Rain = 0
KHO1 091147Z 30003KT 02/02 A3029 RMK A01 T00230023  RH  100%=      5-min Rain = 0
KHO1 091148Z 30003KT 02/02 A3029 RMK A01 T00230023  RH  100%=      5-min Rain = 0
KHO1 091149Z 30003KT 02/02 A3029 RMK A01 T00230023  RH  100%=      5-min Rain = 0
KHO1 091150Z 30003KT 02/02 A3029 RMK A01 T00230023  RH  100%=      5-min Rain = 0
KHO1 091151Z 30003KT 02/02 A3029 RMK A01 T00230023  RH  100%=      5-min Rain = 0
KHO1 091152Z 30003KT 02/02 A3029 RMK A01 T00230023  RH  100%=      5-min Rain = 0
KHO1 091153Z 31003KT 02/02 A3029 RMK A01 T00220022  RH  100%=      5-min Rain = 0
KHO1 091154Z 31003KT 02/02 A3029 RMK A01 T00220022  RH  100%=      5-min Rain = 0
KHO1 091155Z 30003KT 02/02 A3029 RMK A01 T00220022  RH  100%=      5-min Rain = 0
KHO1 091156Z 29004KT 02/02 A3029 RMK A01 T00220022  RH  100%=      5-min Rain = 0
KHO1 091157Z 29004KT 02/02 A3029 RMK A01 T00220022  RH  100%=      5-min Rain = 0
KHO1 091158Z 30003KT 02/02 A3029 RMK A01 T00210022  RH  100%=      5-min Rain = 0
KHO1 091159Z 30003KT 02/02 A3029 RMK A01 T00210021  RH  100%=      5-min Rain = 0
KHO1 091200Z 31003KT 02/02 A3029 RMK A01 T00210021  RH  100%=      5-min Rain = 0
KHO1 091201Z 31003KT 02/02 A3029 RMK A01 T00200020  RH  100%=      5-min Rain = 0
KHO1 091202Z 30003KT 02/02 A3029 RMK A01 T00200020  RH  100%=      5-min Rain = 0
KHO1 091203Z 30003KT 02/02 A3029 RMK A01 T00210021  RH  100%=      5-min Rain = 0
KHO1 091204Z 30003KT 02/02 A3029 RMK A01 T00210021  RH  100%=      5-min Rain = 0
KHO1 091205Z 30004KT 02/02 A3029 RMK A01 T00210021  RH  100%=      5-min Rain = 0
KHO1 091206Z 30004KT 02/02 A3029 RMK A01 T00210021  RH  100%=      5-min Rain = 0
KHO1 091207Z 30004KT 02/02 A3029 RMK A01 T00210021  RH  100%=      5-min Rain = 0
KHO1 091208Z 30003KT 02/02 A3029 RMK A01 T00210021  RH  100%=      5-min Rain = 0
KHO1 091209Z 30003KT 02/02 A3029 RMK A01 T00210021  RH  100%=      5-min Rain = 0
KHO1 091210Z 30004KT 02/02 A3029 RMK A01 T00210021  RH  100%=      5-min Rain = 0
KHO1 091211Z 31004KT 02/02 A3029 RMK A01 T00210021  RH  100%=      5-min Rain = 0
KHO1 091212Z 31004KT 02/02 A3029 RMK A01 T00200020  RH  100%=      5-min Rain = 0
KHO1 091213Z 31004KT 02/02 A3029 RMK A01 T00200020  RH  100%=      5-min Rain = 0
KHO1 091214Z 31004KT 02/02 A3029 RMK A01 T00200020  RH  100%=      5-min Rain = 0
KHO1 091215Z 30004KT 02/02 A3029 RMK A01 T00190019  RH  100%=      5-min Rain = 0
KHO1 091216Z 31004KT 02/02 A3029 RMK A01 T00190019  RH  100%=      5-min Rain = 0
KHO1 091217Z 31004KT 02/02 A3029 RMK A01 T00190019  RH  100%=      5-min Rain = 0
KHO1 091218Z 31004KT 02/02 A3029 RMK A01 T00190019  RH  100%=      5-min Rain = 0
KHO1 091219Z 32004KT 02/02 A3029 RMK A01 T00190019  RH  100%=      5-min Rain = 0
KHO1 091220Z 31004KT 02/02 A3029 RMK A01 T00190019  RH  100%=      5-min Rain = 0
KHO1 091221Z 32004KT 02/02 A3029 RMK A01 T00190019  RH  100%=      5-min Rain = 0
KHO1 091222Z 32004KT 02/02 A3029 RMK A01 T00190019  RH  100%=      5-min Rain = 0
KHO1 091223Z 32004KT 02/02 A3029 RMK A01 T00190019  RH  100%=      5-min Rain = 0
KHO1 091224Z 32004KT 02/02 A3029 RMK A01 T00190019  RH  100%=      5-min Rain = 0
KHO1 091225Z 32004KT 02/02 A3029 RMK A01 T00190019  RH  100%=      5-min Rain = 0
KHO1 091226Z 33004KT 02/02 A3029 RMK A01 T00190019  RH  100%=      5-min Rain = 0
KHO1 091227Z 32004KT 02/02 A3029 RMK A01 T00190019  RH  100%=      5-min Rain = 0
KHO1 091228Z 32004KT 02/02 A3029 RMK A01 T00190019  RH  100%=      5-min Rain = 0
KHO1 091229Z 32004KT 02/02 A3029 RMK A01 T00190019  RH  100%=      5-min Rain = 0
KHO1 091230Z 32003KT 02/02 A3029 RMK A01 T00200020  RH  100%=      5-min Rain = 0
KHO1 091231Z 32004KT 02/02 A3029 RMK A01 T00200020  RH  100%=      5-min Rain = 0
KHO1 091232Z 33004KT 02/02 A3029 RMK A01 T00200020  RH  100%=      5-min Rain = 0
KHO1 091233Z 33004KT 02/02 A3029 RMK A01 T00200020  RH  100%=      5-min Rain = 0
KHO1 091234Z 33004KT 02/02 A3029 RMK A01 T00200020  RH  100%=      5-min Rain = 0
KHO1 091235Z 33004KT 02/02 A3029 RMK A01 T00210021  RH  100%=      5-min Rain = 0
KHO1 091236Z 33004KT 02/02 A3029 RMK A01 T00210021  RH  100%=      5-min Rain = 0
KHO1 091237Z 33004KT 02/02 A3029 RMK A01 T00210021  RH  100%=      5-min Rain = 0
KHO1 091238Z 33004KT 02/02 A3029 RMK A01 T00210021  RH  100%=      5-min Rain = 0
KHO1 091239Z 32004KT 02/02 A3029 RMK A01 T00210021  RH  100%=      5-min Rain = 0
KHO1 091240Z 32004KT 02/02 A3029 RMK A01 T00210021  RH  100%=      5-min Rain = 0
KHO1 091241Z 32004KT 02/02 A3029 RMK A01 T00220022  RH  100%=      5-min Rain = 0
KHO1 091242Z 32004KT 02/02 A3029 RMK A01 T00220022  RH  100%=      5-min Rain = 0
KHO1 091243Z 31004KT 02/02 A3029 RMK A01 T00210021  RH  100%=      5-min Rain = 0
KHO1 091244Z 31004KT 02/02 A3029 RMK A01 T00210021  RH  100%=      5-min Rain = 0
KHO1 091245Z 31004KT 02/02 A3029 RMK A01 T00210021  RH  100%=      5-min Rain = 0
KHO1 091246Z 31004KT 02/02 A3029 RMK A01 T00210021  RH  100%=      5-min Rain = 0
KHO1 091247Z 31004KT 02/02 A3029 RMK A01 T00210021  RH  100%=      5-min Rain = 0
KHO1 091248Z 30004KT 02/02 A3029 RMK A01 T00210021  RH  100%=      5-min Rain = 0
KHO1 091249Z 30004KT 02/02 A3029 RMK A01 T00210021  RH  100%=      5-min Rain = 0
KHO1 091250Z 29004KT 02/02 A3029 RMK A01 T00210021  RH  100%=      5-min Rain = 0
KHO1 091251Z 29004KT 02/02 A3029 RMK A01 T00210021  RH  100%=      5-min Rain = 0
KHO1 091252Z 28004KT 02/02 A3029 RMK A01 T00220022  RH  100%=      5-min Rain = 0
KHO1 091253Z 28004KT 02/02 A3029 RMK A01 T00220022  RH  100%=      5-min Rain = 0
KHO1 091254Z 29004KT 02/02 A3029 RMK A01 T00210021  RH  100%=      5-min Rain = 0
KHO1 091255Z 29004KT 02/02 A3029 RMK A01 T00210021  RH  100%=      5-min Rain = 0
KHO1 091256Z 29004KT 02/02 A3029 RMK A01 T00210021  RH  100%=      5-min Rain = 0
KHO1 091257Z 29004KT 02/02 A3029 RMK A01 T00210021  RH  100%=      5-min Rain = 0
KHO1 091258Z 29003KT 02/02 A3029 RMK A01 T00210021  RH  100%=      5-min Rain = 0
KHO1 091259Z 29004KT 02/02 A3029 RMK A01 T00210021  RH  100%=      5-min Rain = 0
KHO1 091300Z 29004KT 02/02 A3029 RMK A01 T00200020  RH  100%=      5-min Rain = 0
KHO1 091301Z 28003KT 02/02 A3029 RMK A01 T00200020  RH  100%=      5-min Rain = 0
KHO1 091302Z 29004KT 02/02 A3029 RMK A01 T00190019  RH  100%=      5-min Rain = 0
KHO1 091303Z 29004KT 02/02 A3029 RMK A01 T00190019  RH  100%=      5-min Rain = 0
KHO1 091304Z 29004KT 02/02 A303 RMK A01 T00180018  RH  100%=      5-min Rain = 0
KHO1 091305Z 29004KT 02/02 A303 RMK A01 T00180018  RH  100%=      5-min Rain = 0
KHO1 091306Z 29004KT 02/02 A3029 RMK A01 T00170017  RH  100%=      5-min Rain = 0
KHO1 091307Z 29004KT 02/02 A3029 RMK A01 T00170017  RH  100%=      5-min Rain = 0
KHO1 091308Z 28004KT 02/02 A3029 RMK A01 T00160016  RH  100%=      5-min Rain = 0
KHO1 091309Z 28004KT 02/02 A3029 RMK A01 T00160016  RH  100%=      5-min Rain = 0
KHO1 091310Z 28004KT 02/02 A3029 RMK A01 T00160016  RH  100%=      5-min Rain = 0
KHO1 091311Z 28004KT 02/02 A3029 RMK A01 T00150015  RH  100%=      5-min Rain = 0
KHO1 091312Z 28005KT 02/02 A3029 RMK A01 T00160016  RH  100%=      5-min Rain = 0
KHO1 091313Z 28005KT 02/02 A3029 RMK A01 T00160016  RH  100%=      5-min Rain = 0
KHO1 091314Z 27005KT 02/02 A3029 RMK A01 T00160016  RH  100%=      5-min Rain = 0
KHO1 091315Z 27005KT 02/02 A3029 RMK A01 T00170017  RH  100%=      5-min Rain = 0
KHO1 091316Z 27004KT 02/02 A3029 RMK A01 T00170017  RH  100%=      5-min Rain = 0
KHO1 091317Z 28004KT 02/02 A3029 RMK A01 T00170017  RH  100%=      5-min Rain = 0
KHO1 091318Z 28003KT 02/02 A3029 RMK A01 T00170017  RH  100%=      5-min Rain = 0
KHO1 091319Z 28003KT 02/02 A3029 RMK A01 T00170017  RH  100%=      5-min Rain = 0
KHO1 091320Z 28004KT 02/02 A3029 RMK A01 T00170017  RH  100%=      5-min Rain = 0
KHO1 091321Z 27004KT 02/02 A3029 RMK A01 T00170017  RH  100%=      5-min Rain = 0
KHO1 091322Z 27004KT 02/02 A3029 RMK A01 T00170017  RH  100%=      5-min Rain = 0
KHO1 091323Z 27004KT 02/02 A3029 RMK A01 T00170017  RH  100%=      5-min Rain = 0
KHO1 091324Z 27004KT 02/02 A3029 RMK A01 T00160016  RH  100%=      5-min Rain = 0
KHO1 091325Z 27004KT 02/02 A3029 RMK A01 T00160016  RH  100%=      5-min Rain = 0
KHO1 091326Z 28004KT 02/02 A3029 RMK A01 T00160016  RH  100%=      5-min Rain = 0
KHO1 091327Z 28004KT 02/02 A3029 RMK A01 T00160016  RH  100%=      5-min Rain = 0
KHO1 091328Z 29004KT 02/02 A3029 RMK A01 T00170017  RH  100%=      5-min Rain = 0
KHO1 091329Z 29004KT 02/02 A3029 RMK A01 T00180018  RH  100%=      5-min Rain = 0
KHO1 091330Z 29004KT 02/02 A3029 RMK A01 T00180018  RH  100%=      5-min Rain = 0
KHO1 091331Z 28004KT 02/02 A3029 RMK A01 T00190019  RH  100%=      5-min Rain = 0
KHO1 091332Z 29003KT 02/02 A303 RMK A01 T00190019  RH  100%=      5-min Rain = 0
KHO1 091333Z 29003KT 02/02 A303 RMK A01 T00190019  RH  100%=      5-min Rain = 0
KHO1 091334Z 30003KT 02/02 A303 RMK A01 T00190019  RH  100%=      5-min Rain = 0
KHO1 091335Z 30003KT 02/02 A303 RMK A01 T00200020  RH  100%=      5-min Rain = 0
KHO1 091336Z 30003KT 02/02 A303 RMK A01 T00200020  RH  100%=      5-min Rain = 0
KHO1 091337Z 29003KT 02/02 A303 RMK A01 T00200020  RH  100%=      5-min Rain = 0
KHO1 091338Z 29003KT 02/02 A303 RMK A01 T00210021  RH  100%=      5-min Rain = 0
KHO1 091339Z 29003KT 02/02 A303 RMK A01 T00210021  RH  100%=      5-min Rain = 0
KHO1 091340Z 28003KT 02/02 A303 RMK A01 T00210021  RH  100%=      5-min Rain = 0
KHO1 091341Z 28003KT 02/02 A303 RMK A01 T00210021  RH  100%=      5-min Rain = 0
KHO1 091342Z 28003KT 02/02 A303 RMK A01 T00220022  RH  100%=      5-min Rain = 0
KHO1 091343Z 28003KT 02/02 A303 RMK A01 T00220022  RH  100%=      5-min Rain = 0
KHO1 091344Z 28003KT 02/02 A303 RMK A01 T00220022  RH  100%=      5-min Rain = 0
KHO1 091345Z 29003KT 02/02 A303 RMK A01 T00220022  RH  100%=      5-min Rain = 0
KHO1 091346Z 28003KT 02/02 A303 RMK A01 T00230023  RH  100%=      5-min Rain = 0
KHO1 091347Z 28003KT 02/02 A303 RMK A01 T00240024  RH  100%=      5-min Rain = 0
KHO1 091348Z 27003KT 02/02 A303 RMK A01 T00240024  RH  100%=      5-min Rain = 0
KHO1 091349Z 26003KT 03/03 A303 RMK A01 T00250025  RH  100%=      5-min Rain = 0
KHO1 091350Z 26004KT 03/03 A303 RMK A01 T00250025  RH  100%=      5-min Rain = 0
KHO1 091351Z 26003KT 03/03 A303 RMK A01 T00260026  RH  100%=      5-min Rain = 0
KHO1 091352Z 26003KT 03/03 A303 RMK A01 T00260026  RH  100%=      5-min Rain = 0
KHO1 091353Z 26003KT 03/03 A303 RMK A01 T00270027  RH  100%=      5-min Rain = 0
KHO1 091354Z 27003KT 03/03 A303 RMK A01 T00270027  RH  100%=      5-min Rain = 0
KHO1 091355Z 27003KT 03/03 A303 RMK A01 T00280028  RH  100%=      5-min Rain = 0
KHO1 091356Z 28003KT 03/03 A303 RMK A01 T00290029  RH  100%=      5-min Rain = 0
KHO1 091357Z 28003KT 03/03 A303 RMK A01 T00300030  RH  100%=      5-min Rain = 0
KHO1 091358Z 28003KT 03/03 A303 RMK A01 T00300030  RH  100%=      5-min Rain = 0
KHO1 091359Z 28004KT 03/03 A303 RMK A01 T00310031  RH  100%=      5-min Rain = 0
KHO1 091400Z 29003KT 03/03 A303 RMK A01 T00300030  RH  100%=      5-min Rain = 0
KHO1 091401Z 29003KT 03/03 A303 RMK A01 T00310031  RH  100%=      5-min Rain = 0
KHO1 091402Z 29004KT 03/03 A303 RMK A01 T00310032  RH  100%=      5-min Rain = 0
KHO1 091403Z 28004KT 03/03 A303 RMK A01 T00310031  RH  100%=      5-min Rain = 0
KHO1 091404Z 28004KT 03/03 A303 RMK A01 T00320032  RH  100%=      5-min Rain = 0
KHO1 091405Z 28004KT 03/03 A303 RMK A01 T00320032  RH  100%=      5-min Rain = 0
KHO1 091406Z 28003KT 03/03 A303 RMK A01 T00320032  RH  100%=      5-min Rain = 0
KHO1 091407Z 28003KT 03/03 A303 RMK A01 T00330033  RH  100%=      5-min Rain = 0
KHO1 091408Z 28003KT 03/03 A303 RMK A01 T00330033  RH  100%=      5-min Rain = 0
KHO1 091409Z 28003KT 03/03 A303 RMK A01 T00330033  RH  100%=      5-min Rain = 0
KHO1 091410Z 29003KT 03/03 A303 RMK A01 T00340034  RH  100%=      5-min Rain = 0
KHO1 091411Z 29003KT 03/03 A3031 RMK A01 T00340034  RH  100%=      5-min Rain = 0
KHO1 091412Z 28003KT 04/03 A3031 RMK A01 T00350034  RH  100%=      5-min Rain = 0
KHO1 091413Z 27003KT 04/04 A3031 RMK A01 T00350035  RH  100%=      5-min Rain = 0
KHO1 091414Z 27004KT 04/04 A3031 RMK A01 T00350035  RH  100%=      5-min Rain = 0
KHO1 091415Z 26004KT 04/04 A3031 RMK A01 T00360035  RH  100%=      5-min Rain = 0
KHO1 091416Z 26004KT 04/04 A3031 RMK A01 T00360035  RH  099%=      5-min Rain = 0
KHO1 091417Z 26004KT 04/04 A3031 RMK A01 T00370036  RH  099%=      5-min Rain = 0
KHO1 091418Z 26004KT 04/04 A3031 RMK A01 T00380038  RH  100%=      5-min Rain = 0
KHO1 091419Z 26004KT 04/04 A3031 RMK A01 T00390039  RH  100%=      5-min Rain = 0
KHO1 091420Z 26004KT 04/04 A3031 RMK A01 T00400040  RH  100%=      5-min Rain = 0
KHO1 091421Z 26004KT 04/04 A3031 RMK A01 T00410041  RH  100%=      5-min Rain = 0
KHO1 091422Z 25003KT 04/04 A3031 RMK A01 T00430042  RH  100%=      5-min Rain = 0
KHO1 091423Z 25004KT 04/04 A3031 RMK A01 T00440043  RH  100%=      5-min Rain = 0
KHO1 091424Z 25004KT 05/04 A3031 RMK A01 T00450044  RH  100%=      5-min Rain = 0
KHO1 091425Z 25004KT 05/05 A3031 RMK A01 T00460045  RH  100%=      5-min Rain = 0
KHO1 091426Z 25005KT 05/05 A3031 RMK A01 T00460045  RH  099%=      5-min Rain = 0
KHO1 091427Z 25005KT 05/05 A3031 RMK A01 T00470046  RH  099%=      5-min Rain = 0
KHO1 091428Z 25005KT 05/05 A3031 RMK A01 T00470046  RH  099%=      5-min Rain = 0
KHO1 091429Z 24004KT 05/05 A3031 RMK A01 T00490048  RH  099%=      5-min Rain = 0
KHO1 091430Z 24005KT 05/05 A3031 RMK A01 T00510050  RH  099%=      5-min Rain = 0
KHO1 091431Z 24005KT 05/05 A3031 RMK A01 T00520051  RH  100%=      5-min Rain = 0
KHO1 091432Z 25005KT 05/05 A3031 RMK A01 T00530053  RH  100%=      5-min Rain = 0
KHO1 091433Z 25005KT 06/05 A3031 RMK A01 T00550054  RH  100%=      5-min Rain = 0
KHO1 091434Z 25004KT 06/06 A3031 RMK A01 T00570056  RH  100%=      5-min Rain = 0
KHO1 091435Z 25005KT 06/06 A3031 RMK A01 T00580058  RH  100%=      5-min Rain = 0
KHO1 091436Z 25005KT 06/06 A3031 RMK A01 T00590058  RH  100%=      5-min Rain = 0
KHO1 091437Z 25005KT 06/06 A3031 RMK A01 T00590059  RH  100%=      5-min Rain = 0
KHO1 091438Z 25005KT 06/06 A3031 RMK A01 T00600059  RH  100%=      5-min Rain = 0
KHO1 091439Z 25005KT 06/06 A3031 RMK A01 T00610060  RH  099%=      5-min Rain = 0
KHO1 091440Z 25005KT 06/06 A3031 RMK A01 T00620062  RH  099%=      5-min Rain = 0
KHO1 091441Z 26004KT 06/06 A3031 RMK A01 T00630063  RH  099%=      5-min Rain = 0
KHO1 091442Z 25004KT 06/06 A3031 RMK A01 T00640064  RH  099%=      5-min Rain = 0
KHO1 091443Z 26005KT 07/06 A3031 RMK A01 T00650064  RH  099%=      5-min Rain = 0
KHO1 091444Z 26005KT 07/07 A3031 RMK A01 T00660065  RH  099%=      5-min Rain = 0
KHO1 091445Z 27005KT 07/07 A3031 RMK A01 T00670066  RH  099%=      5-min Rain = 0
KHO1 091446Z 26006KT 07/07 A3031 RMK A01 T00680067  RH  099%=      5-min Rain = 0
KHO1 091447Z 26007KT 07/07 A3031 RMK A01 T00680067  RH  099%=      5-min Rain = 0
KHO1 091448Z 26007KT 07/07 A3031 RMK A01 T00690067  RH  099%=      5-min Rain = 0
KHO1 091449Z 26005KT 07/07 A3031 RMK A01 T00690067  RH  099%=      5-min Rain = 0
KHO1 091450Z 26007KT 07/07 A3031 RMK A01 T00710068  RH  099%=      5-min Rain = 0
KHO1 091451Z 26007KT 07/07 A3031 RMK A01 T00710068  RH  098%=      5-min Rain = 0
KHO1 091452Z 26008KT 07/07 A3031 RMK A01 T00710068  RH  098%=      5-min Rain = 0
KHO1 091453Z 26008KT 07/07 A3031 RMK A01 T00710068  RH  098%=      5-min Rain = 0
KHO1 091454Z 27008KT 07/07 A3031 RMK A01 T00720068  RH  098%=      5-min Rain = 0
KHO1 091455Z 26007KT 07/07 A3031 RMK A01 T00720068  RH  097%=      5-min Rain = 0
KHO1 091456Z 26008KT 07/07 A3031 RMK A01 T00720068  RH  097%=      5-min Rain = 0
KHO1 091457Z 26007KT 07/07 A3031 RMK A01 T00730068  RH  097%=      5-min Rain = 0
KHO1 091458Z 26008KT 07/07 A3031 RMK A01 T00730069  RH  097%=      5-min Rain = 0
KHO1 091459Z 26007KT 07/07 A3031 RMK A01 T00730069  RH  097%=      5-min Rain = 0
KHO1 091500Z 27007KT 07/07 A3031 RMK A01 T00740069  RH  097%=      5-min Rain = 0
KHO1 091501Z 26006KT 08/07 A3031 RMK A01 T00750070  RH  097%=      5-min Rain = 0
KHO1 091502Z 27006KT 08/07 A3031 RMK A01 T00760072  RH  097%=      5-min Rain = 0
KHO1 091503Z 27005KT 08/07 A3031 RMK A01 T00770072  RH  097%=      5-min Rain = 0
KHO1 091504Z 27006KT 08/07 A3031 RMK A01 T00780073  RH  097%=      5-min Rain = 0
KHO1 091505Z 26005KT 08/07 A3031 RMK A01 T00780073  RH  097%=      5-min Rain = 0
KHO1 091506Z 27005KT 08/07 A3031 RMK A01 T00790074  RH  097%=      5-min Rain = 0
KHO1 091507Z 27006KT 08/08 A3031 RMK A01 T00800075  RH  097%=      5-min Rain = 0
KHO1 091508Z 27006KT 08/07 A3031 RMK A01 T00800074  RH  096%=      5-min Rain = 0
KHO1 091509Z 26006KT 08/07 A3031 RMK A01 T00800073  RH  096%=      5-min Rain = 0
KHO1 091510Z 27005KT 08/07 A3031 RMK A01 T00800073  RH  095%=      5-min Rain = 0
KHO1 091511Z 27005KT 08/08 A3031 RMK A01 T00810075  RH  096%=      5-min Rain = 0
KHO1 091512Z 27005KT 08/08 A3031 RMK A01 T00830077  RH  096%=      5-min Rain = 0
KHO1 091513Z 28007KT 08/08 A3031 RMK A01 T00830077  RH  096%=      5-min Rain = 0
KHO1 091514Z 27006KT 08/08 A3031 RMK A01 T00830076  RH  095%=      5-min Rain = 0
KHO1 091515Z 28006KT 08/08 A3032 RMK A01 T00840077  RH  095%=      5-min Rain = 0
KHO1 091516Z 26006KT 09/08 A3032 RMK A01 T00850078  RH  095%=      5-min Rain = 0
KHO1 091517Z 26005KT 09/08 A3032 RMK A01 T00860078  RH  095%=      5-min Rain = 0
KHO1 091518Z 26006KT 09/08 A3032 RMK A01 T00850077  RH  094%=      5-min Rain = 0
KHO1 091519Z 26006KT 09/08 A3032 RMK A01 T00860077  RH  094%=      5-min Rain = 0
KHO1 091520Z 26005KT 09/08 A3032 RMK A01 T00870079  RH  095%=      5-min Rain = 0
KHO1 091521Z 25006KT 09/08 A3032 RMK A01 T00880079  RH  095%=      5-min Rain = 0
KHO1 091522Z 24005KT 09/08 A3032 RMK A01 T00880080  RH  094%=      5-min Rain = 0
KHO1 091523Z 24006KT 09/08 A3032 RMK A01 T00880079  RH  094%=      5-min Rain = 0
KHO1 091524Z 24006KT 09/08 A3032 RMK A01 T00880078  RH  094%=      5-min Rain = 0
KHO1 091525Z 25005KT 09/08 A3032 RMK A01 T00890079  RH  094%=      5-min Rain = 0
KHO1 091526Z 25005KT 09/08 A3032 RMK A01 T00890079  RH  094%=      5-min Rain = 0
KHO1 091527Z 25006KT 09/08 A3032 RMK A01 T00880078  RH  093%=      5-min Rain = 0
KHO1 091528Z 25006KT 09/08 A3032 RMK A01 T00880077  RH  093%=      5-min Rain = 0
KHO1 091529Z 24006KT 09/08 A3032 RMK A01 T00880078  RH  093%=      5-min Rain = 0
KHO1 091530Z 24008KT 09/08 A3032 RMK A01 T00880077  RH  093%=      5-min Rain = 0
KHO1 091531Z 24007KT 09/07 A3032 RMK A01 T00860074  RH  092%=      5-min Rain = 0
KHO1 091532Z 24006KT 09/07 A3032 RMK A01 T00860074  RH  092%=      5-min Rain = 0
KHO1 091533Z 25006KT 09/08 A3032 RMK A01 T00860075  RH  093%=      5-min Rain = 0
KHO1 091534Z 26007KT 09/07 A3032 RMK A01 T00860074  RH  093%=      5-min Rain = 0
KHO1 091535Z 24006KT 09/08 A3032 RMK A01 T00870077  RH  094%=      5-min Rain = 0
KHO1 091536Z 24006KT 09/08 A3032 RMK A01 T00860076  RH  093%=      5-min Rain = 0
KHO1 091537Z 24006KT 09/07 A3032 RMK A01 T00850074  RH  092%=      5-min Rain = 0
KHO1 091538Z 24005KT 09/08 A3032 RMK A01 T00860075  RH  093%=      5-min Rain = 0
KHO1 091539Z 25004KT 09/08 A3032 RMK A01 T00860076  RH  093%=      5-min Rain = 0
KHO1 091540Z 26006KT 09/08 A3032 RMK A01 T00870077  RH  094%=      5-min Rain = 0
KHO1 091541Z 26006KT 09/07 A3032 RMK A01 T00850073  RH  092%=      5-min Rain = 0
KHO1 091542Z 27006KT 09/07 A3032 RMK A01 T00860074  RH  093%=      5-min Rain = 0
KHO1 091543Z 25006KT 09/07 A3032 RMK A01 T00860074  RH  093%=      5-min Rain = 0
KHO1 091544Z 26005KT 09/08 A3032 RMK A01 T00870076  RH  093%=      5-min Rain = 0
KHO1 091545Z 26005KT 09/08 A3032 RMK A01 T00870075  RH  093%=      5-min Rain = 0
KHO1 091546Z 25005KT 09/08 A3032 RMK A01 T00870076  RH  093%=      5-min Rain = 0
KHO1 091547Z 24004KT 09/08 A3032 RMK A01 T00880077  RH  093%=      5-min Rain = 0
KHO1 091548Z 24004KT 09/08 A3032 RMK A01 T00900080  RH  094%=      5-min Rain = 0
KHO1 091549Z 24004KT 09/08 A3032 RMK A01 T00900080  RH  093%=      5-min Rain = 0
KHO1 091550Z 24005KT 09/08 A3032 RMK A01 T00900078  RH  092%=      5-min Rain = 0
KHO1 091551Z 25004KT 09/08 A3032 RMK A01 T00920080  RH  093%=      5-min Rain = 0
KHO1 091552Z 26004KT 09/08 A3032 RMK A01 T00930082  RH  093%=      5-min Rain = 0
KHO1 091553Z 27004KT 10/08 A3032 RMK A01 T00950083  RH  092%=      5-min Rain = 0
KHO1 091554Z 26004KT 10/08 A3032 RMK A01 T00960084  RH  092%=      5-min Rain = 0
KHO1 091555Z 27004KT 10/08 A3032 RMK A01 T00960082  RH  091%=      5-min Rain = 0
KHO1 091556Z 26003KT 10/09 A3032 RMK A01 T00980085  RH  092%=      5-min Rain = 0
KHO1 091557Z 26003KT 10/08 A3032 RMK A01 T00980084  RH  090%=      5-min Rain = 0
KHO1 091558Z 24004KT 10/08 A3032 RMK A01 T00990083  RH  090%=      5-min Rain = 0
KHO1 091559Z 25004KT 10/08 A3032 RMK A01 T00990083  RH  090%=      5-min Rain = 0
KHO1 091600Z 25004KT 10/08 A3032 RMK A01 T01000084  RH  090%=      5-min Rain = 0
KHO1 091601Z 25004KT 10/09 A3032 RMK A01 T01010085  RH  090%=      5-min Rain = 0
KHO1 091602Z 25004KT 10/09 A3032 RMK A01 T01020085  RH  089%=      5-min Rain = 0
KHO1 091603Z 25003KT 10/08 A3032 RMK A01 T01020084  RH  089%=      5-min Rain = 0
KHO1 091604Z 27004KT 10/09 A3032 RMK A01 T01030085  RH  088%=      5-min Rain = 0
KHO1 091605Z 27004KT 10/09 A3032 RMK A01 T01040086  RH  088%=      5-min Rain = 0
KHO1 091606Z 27004KT 11/09 A3032 RMK A01 T01070089  RH  089%=      5-min Rain = 0
KHO1 091607Z 28004KT 11/09 A3032 RMK A01 T01070087  RH  087%=      5-min Rain = 0
KHO1 091608Z 29004KT 11/09 A3032 RMK A01 T01090089  RH  087%=      5-min Rain = 0
KHO1 091609Z 28004KT 11/09 A3032 RMK A01 T01100090  RH  087%=      5-min Rain = 0
KHO1 091610Z 26004KT 11/09 A3032 RMK A01 T01110088  RH  086%=      5-min Rain = 0
KHO1 091611Z 26003KT 11/09 A3032 RMK A01 T01100087  RH  085%=      5-min Rain = 0
KHO1 091612Z 27004KT 11/09 A3032 RMK A01 T01120089  RH  086%=      5-min Rain = 0
KHO1 091613Z 28005KT 11/09 A3032 RMK A01 T01130087  RH  084%=      5-min Rain = 0
KHO1 091614Z 27005KT 11/09 A3032 RMK A01 T01130088  RH  084%=      5-min Rain = 0
KHO1 091615Z 27004KT 12/09 A3032 RMK A01 T01150090  RH  085%=      5-min Rain = 0
KHO1 091616Z 25003KT 12/09 A3032 RMK A01 T01160088  RH  083%=      5-min Rain = 0
KHO1 091617Z 26004KT 12/09 A3032 RMK A01 T01160086  RH  082%=      5-min Rain = 0
KHO1 091618Z 27003KT 12/09 A3032 RMK A01 T01170088  RH  083%=      5-min Rain = 0
KHO1 091619Z 25004KT 12/09 A3032 RMK A01 T01190089  RH  082%=      5-min Rain = 0
KHO1 091620Z 25003KT 12/09 A3032 RMK A01 T01190089  RH  082%=      5-min Rain = 0
KHO1 091621Z 26004KT 12/09 A3032 RMK A01 T01200088  RH  081%=      5-min Rain = 0
KHO1 091622Z 27004KT 12/09 A3032 RMK A01 T01220089  RH  081%=      5-min Rain = 0
KHO1 091623Z 26004KT 12/09 A3032 RMK A01 T01230089  RH  080%=      5-min Rain = 0
KHO1 091624Z 27004KT 12/09 A3032 RMK A01 T01240090  RH  080%=      5-min Rain = 0
KHO1 091625Z 25005KT 13/09 A3032 RMK A01 T01250089  RH  078%=      5-min Rain = 0
KHO1 091626Z 26005KT 13/09 A3032 RMK A01 T01260089  RH  078%=      5-min Rain = 0
KHO1 091627Z 26005KT 13/09 A3032 RMK A01 T01260088  RH  078%=      5-min Rain = 0
KHO1 091628Z 26005KT 13/09 A3032 RMK A01 T01270088  RH  077%=      5-min Rain = 0
KHO1 091629Z 25005KT 13/09 A3031 RMK A01 T01280090  RH  077%=      5-min Rain = 0
KHO1 091630Z 26005KT 13/09 A3031 RMK A01 T01300090  RH  077%=      5-min Rain = 0
KHO1 091631Z 25006KT 13/09 A3031 RMK A01 T01290087  RH  075%=      5-min Rain = 0
KHO1 091632Z 25005KT 13/09 A3031 RMK A01 T01300089  RH  076%=      5-min Rain = 0
KHO1 091633Z 25006KT 13/09 A3031 RMK A01 T01300086  RH  075%=      5-min Rain = 0
KHO1 091634Z 25005KT 13/09 A3031 RMK A01 T01290087  RH  075%=      5-min Rain = 0
KHO1 091635Z 24006KT 13/09 A3031 RMK A01 T01300087  RH  075%=      5-min Rain = 0
KHO1 091636Z 25007KT 13/09 A3031 RMK A01 T01310088  RH  075%=      5-min Rain = 0
KHO1 091637Z 25006KT 13/09 A3031 RMK A01 T01310089  RH  076%=      5-min Rain = 0
KHO1 091638Z 24007KT 13/09 A3031 RMK A01 T01320089  RH  075%=      5-min Rain = 0
KHO1 091639Z 25006KT 13/09 A3031 RMK A01 T01320089  RH  075%=      5-min Rain = 0
KHO1 091640Z 25005KT 13/09 A3031 RMK A01 T01320087  RH  074%=      5-min Rain = 0
KHO1 091641Z 26005KT 13/09 A3031 RMK A01 T01330091  RH  076%=      5-min Rain = 0
KHO1 091642Z 25005KT 14/09 A3031 RMK A01 T01350093  RH  075%=      5-min Rain = 0
KHO1 091643Z 25005KT 14/09 A3031 RMK A01 T01360090  RH  074%=      5-min Rain = 0
KHO1 091644Z 26006KT 14/09 A3031 RMK A01 T01370090  RH  073%=      5-min Rain = 0
KHO1 091645Z 27005KT 14/09 A3031 RMK A01 T01370091  RH  074%=      5-min Rain = 0
KHO1 091646Z 26004KT 14/09 A3031 RMK A01 T01380091  RH  073%=      5-min Rain = 0
KHO1 091647Z 24006KT 14/09 A3031 RMK A01 T01380089  RH  072%=      5-min Rain = 0
KHO1 091648Z 24006KT 14/09 A3031 RMK A01 T01380089  RH  072%=      5-min Rain = 0
KHO1 091649Z 23006KT 14/09 A3031 RMK A01 T01390092  RH  073%=      5-min Rain = 0
KHO1 091650Z 23006KT 14/09 A3031 RMK A01 T01390091  RH  073%=      5-min Rain = 0
KHO1 091651Z 23005KT 14/09 A3031 RMK A01 T01390088  RH  071%=      5-min Rain = 0
KHO1 091652Z 25005KT 14/09 A3031 RMK A01 T01390090  RH  072%=      5-min Rain = 0
KHO1 091653Z 25005KT 14/09 A3031 RMK A01 T01400090  RH  072%=      5-min Rain = 0
KHO1 091654Z 25004KT 14/09 A3031 RMK A01 T01410093  RH  073%=      5-min Rain = 0
KHO1 091655Z 24005KT 14/09 A3031 RMK A01 T01430093  RH  072%=      5-min Rain = 0
KHO1 091656Z 22007KT 14/09 A3031 RMK A01 T01430091  RH  071%=      5-min Rain = 0
KHO1 091657Z 22006KT 14/09 A3031 RMK A01 T01420090  RH  071%=      5-min Rain = 0
KHO1 091658Z 23005KT 14/09 A3031 RMK A01 T01410089  RH  071%=      5-min Rain = 0
KHO1 091659Z 25004KT 14/09 A3031 RMK A01 T01420092  RH  072%=      5-min Rain = 0
KHO1 091700Z 26004KT 14/09 A3031 RMK A01 T01440093  RH  071%=      5-min Rain = 0
KHO1 091701Z 23005KT 15/09 A3031 RMK A01 T01460090  RH  069%=      5-min Rain = 0
KHO1 091702Z 23005KT 15/09 A3031 RMK A01 T01460088  RH  068%=      5-min Rain = 0
KHO1 091703Z 23005KT 15/09 A3031 RMK A01 T01450087  RH  068%=      5-min Rain = 0
KHO1 091704Z 22004KT 15/09 A3031 RMK A01 T01450089  RH  069%=      5-min Rain = 0
KHO1 091705Z 24004KT 15/09 A3031 RMK A01 T01480091  RH  069%=      5-min Rain = 0
KHO1 091706Z 25006KT 15/09 A3031 RMK A01 T01480089  RH  067%=      5-min Rain = 0
KHO1 091707Z 25006KT 15/09 A3031 RMK A01 T01480089  RH  068%=      5-min Rain = 0
KHO1 091708Z 25005KT 15/09 A3031 RMK A01 T01490091  RH  068%=      5-min Rain = 0
KHO1 091709Z 23005KT 15/09 A3031 RMK A01 T01510089  RH  067%=      5-min Rain = 0
KHO1 091710Z 23004KT 15/09 A3031 RMK A01 T01510087  RH  066%=      5-min Rain = 0
KHO1 091711Z 23004KT 15/09 A3031 RMK A01 T01530092  RH  067%=      5-min Rain = 0
KHO1 091712Z 22006KT 16/09 A3031 RMK A01 T01550091  RH  066%=      5-min Rain = 0
KHO1 091713Z 22006KT 15/09 A3031 RMK A01 T01540088  RH  065%=      5-min Rain = 0
KHO1 091714Z 24006KT 15/09 A3031 RMK A01 T01540090  RH  066%=      5-min Rain = 0
KHO1 091715Z 24005KT 15/09 A3031 RMK A01 T01530087  RH  065%=      5-min Rain = 0
KHO1 091716Z 23006KT 15/09 A3031 RMK A01 T01540087  RH  065%=      5-min Rain = 0
KHO1 091717Z 22005KT 16/09 A3031 RMK A01 T01550087  RH  064%=      5-min Rain = 0
KHO1 091718Z 21004KT 16/09 A3031 RMK A01 T01550087  RH  063%=      5-min Rain = 0
KHO1 091719Z 26005KT 16/09 A3031 RMK A01 T01580088  RH  063%=      5-min Rain = 0
KHO1 091720Z 26006KT 16/08 A303 RMK A01 T01580083  RH  061%=      5-min Rain = 0
KHO1 091721Z 25005KT 16/08 A303 RMK A01 T01580084  RH  061%=      5-min Rain = 0
KHO1 091722Z 23006KT 16/08 A303 RMK A01 T01590081  RH  060%=      5-min Rain = 0
KHO1 091723Z 25004KT 16/08 A303 RMK A01 T01590084  RH  061%=      5-min Rain = 0
KHO1 091724Z 25004KT 16/08 A303 RMK A01 T01610083  RH  060%=      5-min Rain = 0
KHO1 091725Z 26004KT 16/09 A303 RMK A01 T01610085  RH  060%=      5-min Rain = 0
KHO1 091726Z 25005KT 16/08 A303 RMK A01 T01620082  RH  059%=      5-min Rain = 0
KHO1 091727Z 22005KT 16/09 A303 RMK A01 T01630087  RH  060%=      5-min Rain = 0
KHO1 091728Z 23005KT 16/08 A303 RMK A01 T01620080  RH  058%=      5-min Rain = 0
KHO1 091729Z 24004KT 16/08 A303 RMK A01 T01600079  RH  058%=      5-min Rain = 0
KHO1 091730Z 24004KT 16/08 A303 RMK A01 T01610083  RH  060%=      5-min Rain = 0
KHO1 091731Z 23004KT 16/09 A303 RMK A01 T01620085  RH  060%=      5-min Rain = 0
KHO1 091732Z 22006KT 16/08 A303 RMK A01 T01630083  RH  059%=      5-min Rain = 0
KHO1 091733Z 23005KT 16/08 A303 RMK A01 T01630080  RH  058%=      5-min Rain = 0
KHO1 091734Z 25003KT 17/09 A303 RMK A01 T01670089  RH  060%=      5-min Rain = 0
KHO1 091735Z 26003KT 17/09 A303 RMK A01 T01690087  RH  058%=      5-min Rain = 0
KHO1 091736Z 29003KT 17/09 A303 RMK A01 T01700085  RH  057%=      5-min Rain = 0
KHO1 091737Z 25004KT 17/09 A303 RMK A01 T01700085  RH  058%=      5-min Rain = 0
KHO1 091738Z 25005KT 17/09 A303 RMK A01 T01700087  RH  058%=      5-min Rain = 0
KHO1 091739Z 23006KT 17/09 A303 RMK A01 T01710086  RH  057%=      5-min Rain = 0
KHO1 091740Z 24006KT 17/08 A303 RMK A01 T01700076  RH  054%=      5-min Rain = 0
KHO1 091741Z 23005KT 17/08 A303 RMK A01 T01710076  RH  054%=      5-min Rain = 0
KHO1 091742Z 21007KT 17/08 A303 RMK A01 T01700075  RH  053%=      5-min Rain = 0
KHO1 091743Z 21004KT 17/08 A303 RMK A01 T01700078  RH  054%=      5-min Rain = 0
KHO1 091744Z 21004KT 17/08 A303 RMK A01 T01710076  RH  054%=      5-min Rain = 0
KHO1 091745Z 20005KT 17/07 A303 RMK A01 T01700067  RH  051%=      5-min Rain = 0
KHO1 091746Z 21006KT 17/07 A303 RMK A01 T01710074  RH  053%=      5-min Rain = 0
KHO1 091747Z 23005KT 17/07 A303 RMK A01 T01700069  RH  051%=      5-min Rain = 0
KHO1 091748Z 20005KT 17/07 A303 RMK A01 T01710073  RH  052%=      5-min Rain = 0
KHO1 091749Z 19005KT 17/07 A303 RMK A01 T01690068  RH  051%=      5-min Rain = 0
KHO1 091750Z 21005KT 17/07 A303 RMK A01 T01690067  RH  051%=      5-min Rain = 0
KHO1 091751Z 24004KT 17/07 A303 RMK A01 T01700073  RH  053%=      5-min Rain = 0
KHO1 091752Z 21003KT 17/07 A303 RMK A01 T01720073  RH  052%=      5-min Rain = 0
KHO1 091753Z 20005KT 17/08 A303 RMK A01 T01720075  RH  053%=      5-min Rain = 0
KHO1 091754Z 19005KT 17/07 A3029 RMK A01 T01710068  RH  051%=      5-min Rain = 0
KHO1 091755Z 20005KT 17/08 A3029 RMK A01 T01710077  RH  054%=      5-min Rain = 0
KHO1 091756Z 23006KT 17/07 A3029 RMK A01 T01730072  RH  051%=      5-min Rain = 0
KHO1 091757Z 23005KT 17/06 A3029 RMK A01 T01720063  RH  049%=      5-min Rain = 0
KHO1 091758Z 25005KT 17/07 A3029 RMK A01 T01730070  RH  051%=      5-min Rain = 0
KHO1 091759Z 22004KT 18/07 A3029 RMK A01 T01750072  RH  051%=      5-min Rain = 0
KHO1 091800Z 21005KT 18/07 A3029 RMK A01 T01750069  RH  050%=      5-min Rain = 0
KHO1 091801Z 21005KT 17/07 A3029 RMK A01 T01740071  RH  051%=      5-min Rain = 0
KHO1 091802Z 21007KT 17/07 A3029 RMK A01 T01740070  RH  050%=      5-min Rain = 0
KHO1 091803Z 23007KT 17/06 A3029 RMK A01 T01730063  RH  048%=      5-min Rain = 0
KHO1 091804Z 24006KT 17/06 A3029 RMK A01 T01740057  RH  046%=      5-min Rain = 0
KHO1 091805Z 23005KT 17/07 A3029 RMK A01 T01740067  RH  049%=      5-min Rain = 0
KHO1 091806Z 20004KT 17/07 A3028 RMK A01 T01730067  RH  050%=      5-min Rain = 0
KHO1 091807Z 22004KT 17/07 A3028 RMK A01 T01730068  RH  050%=      5-min Rain = 0
KHO1 091808Z 19006KT 17/07 A3028 RMK A01 T01730067  RH  050%=      5-min Rain = 0
KHO1 091809Z 19006KT 17/07 A3028 RMK A01 T01730067  RH  050%=      5-min Rain = 0
KHO1 091810Z 20004KT 17/07 A3028 RMK A01 T01720066  RH  049%=      5-min Rain = 0
KHO1 091811Z 20006KT 17/07 A3028 RMK A01 T01730065  RH  049%=      5-min Rain = 0
KHO1 091812Z 20006KT 18/07 A3028 RMK A01 T01750066  RH  049%=      5-min Rain = 0
KHO1 091813Z 20007KT 18/06 A3028 RMK A01 T01760055  RH  045%=      5-min Rain = 0
KHO1 091814Z 21006KT 18/06 A3028 RMK A01 T01770062  RH  047%=      5-min Rain = 0
KHO1 091815Z 23006KT 18/07 A3028 RMK A01 T01760065  RH  048%=      5-min Rain = 0
KHO1 091816Z 23005KT 18/06 A3028 RMK A01 T01760061  RH  047%=      5-min Rain = 0
KHO1 091817Z 21006KT 18/06 A3028 RMK A01 T01770063  RH  047%=      5-min Rain = 0
KHO1 091818Z 20007KT 18/06 A3028 RMK A01 T01780061  RH  046%=      5-min Rain = 0
KHO1 091819Z 20004KT 18/05 A3028 RMK A01 T01760053  RH  044%=      5-min Rain = 0
KHO1 091820Z 17005KT 17/06 A3027 RMK A01 T01740058  RH  046%=      5-min Rain = 0
KHO1 091821Z 20008KT 18/06 A3027 RMK A01 T01750058  RH  046%=      5-min Rain = 0
KHO1 091822Z 21005KT 18/06 A3027 RMK A01 T01770061  RH  047%=      5-min Rain = 0
KHO1 091823Z 20005KT 18/06 A3027 RMK A01 T01780059  RH  046%=      5-min Rain = 0
KHO1 091824Z 21005KT 18/06 A3027 RMK A01 T01780061  RH  046%=      5-min Rain = 0
KHO1 091825Z 23004KT 18/06 A3027 RMK A01 T01780057  RH  045%=      5-min Rain = 0
KHO1 091826Z 26003KT 18/06 A3027 RMK A01 T01790061  RH  046%=      5-min Rain = 0
KHO1 091827Z 25006KT 18/06 A3027 RMK A01 T01810063  RH  046%=      5-min Rain = 0
KHO1 091828Z 25005KT 18/06 A3027 RMK A01 T01800061  RH  046%=      5-min Rain = 0
KHO1 091829Z 20004KT 18/06 A3027 RMK A01 T01800063  RH  046%=      5-min Rain = 0
KHO1 091830Z 19003KT 18/05 A3027 RMK A01 T01800054  RH  044%=      5-min Rain = 0
KHO1 091831Z 20004KT 18/06 A3027 RMK A01 T01790058  RH  045%=      5-min Rain = 0
KHO1 091832Z 22004KT 18/06 A3027 RMK A01 T01800058  RH  045%=      5-min Rain = 0
KHO1 091833Z 23005KT 18/06 A3027 RMK A01 T01810058  RH  044%=      5-min Rain = 0
KHO1 091834Z 24006KT 18/06 A3027 RMK A01 T01810058  RH  044%=      5-min Rain = 0
KHO1 091835Z 23006KT 18/05 A3027 RMK A01 T01810051  RH  042%=      5-min Rain = 0
KHO1 091836Z 23006KT 18/05 A3026 RMK A01 T01790052  RH  043%=      5-min Rain = 0
KHO1 091837Z 23008KT 18/06 A3026 RMK A01 T01800058  RH  045%=      5-min Rain = 0
KHO1 091838Z 22006KT 18/05 A3026 RMK A01 T01780052  RH  043%=      5-min Rain = 0
KHO1 091839Z 25003KT 18/06 A3026 RMK A01 T01780056  RH  045%=      5-min Rain = 0
KHO1 091840Z 21005KT 18/06 A3026 RMK A01 T01800057  RH  044%=      5-min Rain = 0
KHO1 091841Z 21006KT 18/06 A3026 RMK A01 T01810057  RH  044%=      5-min Rain = 0
KHO1 091842Z 18005KT 18/06 A3026 RMK A01 T01820057  RH  044%=      5-min Rain = 0
KHO1 091843Z 19005KT 18/06 A3026 RMK A01 T01810057  RH  044%=      5-min Rain = 0
KHO1 091844Z 20003KT 18/06 A3026 RMK A01 T01820062  RH  046%=      5-min Rain = 0
KHO1 091845Z 24003KT 18/07 A3026 RMK A01 T01840065  RH  046%=      5-min Rain = 0
KHO1 091846Z 23004KT 19/06 A3026 RMK A01 T01860064  RH  045%=      5-min Rain = 0
KHO1 091847Z 21005KT 19/06 A3026 RMK A01 T01850058  RH  043%=      5-min Rain = 0
KHO1 091848Z 22004KT 18/06 A3026 RMK A01 T01840058  RH  044%=      5-min Rain = 0
KHO1 091849Z 25003KT 18/06 A3026 RMK A01 T01840056  RH  043%=      5-min Rain = 0
KHO1 091850Z 25005KT 19/07 A3026 RMK A01 T01860065  RH  045%=      5-min Rain = 0
KHO1 091851Z 22006KT 19/06 A3026 RMK A01 T01880060  RH  043%=      5-min Rain = 0
KHO1 091852Z 21005KT 19/05 A3026 RMK A01 T01850050  RH  041%=      5-min Rain = 0
KHO1 091853Z 21003KT 18/06 A3025 RMK A01 T01840055  RH  043%=      5-min Rain = 0
KHO1 091854Z 23003KT 19/06 A3025 RMK A01 T01850057  RH  043%=      5-min Rain = 0
KHO1 091855Z 19005KT 19/06 A3025 RMK A01 T01880064  RH  044%=      5-min Rain = 0
KHO1 091856Z 20004KT 19/06 A3025 RMK A01 T01860058  RH  043%=      5-min Rain = 0
KHO1 091857Z 20005KT 19/06 A3025 RMK A01 T01860058  RH  043%=      5-min Rain = 0
KHO1 091858Z 20006KT 19/06 A3025 RMK A01 T01870060  RH  043%=      5-min Rain = 0
KHO1 091859Z 20008KT 19/05 A3025 RMK A01 T01870046  RH  039%=      5-min Rain = 0
KHO1 091900Z 19007KT 19/05 A3025 RMK A01 T01860048  RH  040%=      5-min Rain = 0
KHO1 091901Z 19004KT 19/05 A3025 RMK A01 T01860045  RH  039%=      5-min Rain = 0
KHO1 091902Z 19002KT 19/05 A3025 RMK A01 T01870046  RH  039%=      5-min Rain = 0
KHO1 091903Z 16005KT 19/05 A3025 RMK A01 T01890054  RH  041%=      5-min Rain = 0
KHO1 091904Z 16006KT 19/06 A3025 RMK A01 T01890057  RH  042%=      5-min Rain = 0
KHO1 091905Z 17007G13KT 19/06 A3024 RMK A01 T01910062  RH  043%=      5-min Rain = 0
KHO1 091906Z 24006G12KT 19/06 A3024 RMK A01 T01920062  RH  043%=      5-min Rain = 0
KHO1 091907Z 19004KT 19/06 A3024 RMK A01 T01930058  RH  041%=      5-min Rain = 0
KHO1 091908Z 20006KT 19/06 A3024 RMK A01 T01930058  RH  041%=      5-min Rain = 0
KHO1 091909Z 19007KT 19/05 A3024 RMK A01 T01910050  RH  039%=      5-min Rain = 0
KHO1 091910Z 18007KT 19/05 A3024 RMK A01 T01880049  RH  040%=      5-min Rain = 0
KHO1 091911Z 18008KT 19/05 A3024 RMK A01 T01880046  RH  039%=      5-min Rain = 0
KHO1 091912Z 18007KT 19/04 A3024 RMK A01 T01860041  RH  038%=      5-min Rain = 0
KHO1 091913Z 19006KT 19/05 A3024 RMK A01 T01860052  RH  041%=      5-min Rain = 0
KHO1 091914Z 21006KT 19/05 A3024 RMK A01 T01880049  RH  040%=      5-min Rain = 0
KHO1 091915Z 22005KT 19/05 A3024 RMK A01 T01890054  RH  041%=      5-min Rain = 0
KHO1 091916Z 19005KT 19/05 A3024 RMK A01 T01890051  RH  040%=      5-min Rain = 0
KHO1 091917Z 17005KT 19/05 A3024 RMK A01 T01880048  RH  040%=      5-min Rain = 0
KHO1 091918Z 17005KT 19/05 A3024 RMK A01 T01880048  RH  040%=      5-min Rain = 0
KHO1 091919Z 17005KT 19/05 A3024 RMK A01 T01890049  RH  040%=      5-min Rain = 0
KHO1 091920Z 17007KT 19/05 A3024 RMK A01 T01890047  RH  039%=      5-min Rain = 0
KHO1 091921Z 17007KT 19/05 A3023 RMK A01 T01900049  RH  039%=      5-min Rain = 0
KHO1 091922Z 19007KT 19/05 A3023 RMK A01 T01900051  RH  040%=      5-min Rain = 0
KHO1 091923Z 20008KT 19/05 A3023 RMK A01 T01910051  RH  040%=      5-min Rain = 0
KHO1 091924Z 19008KT 19/05 A3023 RMK A01 T01900047  RH  039%=      5-min Rain = 0
KHO1 091925Z 18006KT 19/04 A3023 RMK A01 T01880044  RH  038%=      5-min Rain = 0
KHO1 091926Z 17004KT 19/05 A3023 RMK A01 T01870048  RH  040%=      5-min Rain = 0
KHO1 091927Z 20005KT 19/05 A3023 RMK A01 T01890049  RH  040%=      5-min Rain = 0
KHO1 091928Z 19007KT 19/05 A3023 RMK A01 T01890050  RH  040%=      5-min Rain = 0
KHO1 091929Z 17008KT 19/05 A3023 RMK A01 T01890049  RH  040%=      5-min Rain = 0
KHO1 091930Z 17007KT 19/05 A3023 RMK A01 T01890052  RH  041%=      5-min Rain = 0
KHO1 091931Z 17006KT 19/05 A3023 RMK A01 T01900048  RH  039%=      5-min Rain = 0
KHO1 091932Z 17004KT 19/05 A3023 RMK A01 T01900049  RH  040%=      5-min Rain = 0
KHO1 091933Z 20007KT 19/05 A3023 RMK A01 T01910048  RH  039%=      5-min Rain = 0
KHO1 091934Z 20007KT 19/04 A3023 RMK A01 T01900042  RH  037%=      5-min Rain = 0
KHO1 091935Z 19007KT 19/04 A3023 RMK A01 T01900044  RH  038%=      5-min Rain = 0
KHO1 091936Z 18005KT 19/05 A3023 RMK A01 T01900054  RH  041%=      5-min Rain = 0
KHO1 091937Z 20005KT 19/05 A3023 RMK A01 T01900048  RH  039%=      5-min Rain = 0
KHO1 091938Z 18005KT 19/05 A3023 RMK A01 T01890046  RH  039%=      5-min Rain = 0
KHO1 091939Z 22005KT 19/05 A3022 RMK A01 T01890050  RH  040%=      5-min Rain = 0
KHO1 091940Z 21005KT 19/05 A3022 RMK A01 T01920051  RH  039%=      5-min Rain = 0
KHO1 091941Z 19006KT 19/05 A3022 RMK A01 T01930047  RH  038%=      5-min Rain = 0
KHO1 091942Z 18006KT 19/04 A3022 RMK A01 T01940042  RH  037%=      5-min Rain = 0
KHO1 091943Z 19005KT 19/04 A3022 RMK A01 T01930039  RH  036%=      5-min Rain = 0
KHO1 091944Z 17006KT 19/04 A3022 RMK A01 T01940039  RH  036%=      5-min Rain = 0
KHO1 091945Z 19007KT 19/05 A3022 RMK A01 T01940046  RH  038%=      5-min Rain = 0
KHO1 091946Z 19006KT 19/04 A3022 RMK A01 T01930040  RH  036%=      5-min Rain = 0
KHO1 091947Z 17007KT 19/04 A3022 RMK A01 T01930037  RH  036%=      5-min Rain = 0
KHO1 091948Z 17006KT 19/04 A3022 RMK A01 T01930039  RH  036%=      5-min Rain = 0
KHO1 091949Z 18005KT 19/04 A3022 RMK A01 T01930041  RH  037%=      5-min Rain = 0
KHO1 091950Z 18004KT 19/04 A3022 RMK A01 T01920043  RH  037%=      5-min Rain = 0
KHO1 091951Z 17004KT 19/05 A3022 RMK A01 T01930048  RH  038%=      5-min Rain = 0
KHO1 091952Z 18005KT 19/05 A3022 RMK A01 T01940047  RH  038%=      5-min Rain = 0
KHO1 091953Z 21006KT 20/05 A3022 RMK A01 T01950047  RH  038%=      5-min Rain = 0
KHO1 091954Z 19006KT 20/05 A3022 RMK A01 T01980049  RH  038%=      5-min Rain = 0
KHO1 091955Z 20008KT 20/04 A3022 RMK A01 T01990041  RH  035%=      5-min Rain = 0
KHO1 091956Z 19007KT 20/04 A3022 RMK A01 T01970036  RH  034%=      5-min Rain = 0
KHO1 091957Z 20005KT 19/03 A3022 RMK A01 T01940031  RH  034%=      5-min Rain = 0
KHO1 091958Z 18004KT 19/04 A3022 RMK A01 T01930040  RH  036%=      5-min Rain = 0
KHO1 091959Z 21003KT 19/04 A3022 RMK A01 T01940043  RH  037%=      5-min Rain = 0
KHO1 092000Z 20004KT 20/05 A3022 RMK A01 T01960046  RH  037%=      5-min Rain = 0
KHO1 092001Z 23006KT 20/05 A3022 RMK A01 T01980047  RH  037%=      5-min Rain = 0
KHO1 092002Z 21007KT 20/05 A3022 RMK A01 T01990047  RH  037%=      5-min Rain = 0
KHO1 092003Z 20008KT 20/04 A3021 RMK A01 T01990035  RH  034%=      5-min Rain = 0
KHO1 092004Z 19009KT 20/03 A3022 RMK A01 T01980034  RH  034%=      5-min Rain = 0
KHO1 092005Z 19006KT 20/03 A3022 RMK A01 T01950030  RH  033%=      5-min Rain = 0
KHO1 092006Z 18005KT 19/03 A3021 RMK A01 T01930033  RH  035%=      5-min Rain = 0
KHO1 092007Z 20005KT 19/04 A3021 RMK A01 T01940042  RH  037%=      5-min Rain = 0
KHO1 092008Z 20007KT 20/04 A3021 RMK A01 T01960039  RH  035%=      5-min Rain = 0
KHO1 092009Z 19007KT 20/04 A3021 RMK A01 T01970039  RH  035%=      5-min Rain = 0
KHO1 092010Z 19007KT 20/04 A3021 RMK A01 T01960039  RH  035%=      5-min Rain = 0
KHO1 092011Z 19005KT 20/04 A3021 RMK A01 T01960036  RH  035%=      5-min Rain = 0
KHO1 092012Z 19004KT 20/04 A3021 RMK A01 T01950036  RH  035%=      5-min Rain = 0
KHO1 092013Z 20007KT 20/03 A3021 RMK A01 T01960033  RH  034%=      5-min Rain = 0
KHO1 092014Z 19006KT 20/03 A3021 RMK A01 T01960027  RH  033%=      5-min Rain = 0
KHO1 092015Z 18006KT 20/03 A3021 RMK A01 T01970033  RH  034%=      5-min Rain = 0
KHO1 092016Z 17007KT 20/03 A3021 RMK A01 T01970025  RH  032%=      5-min Rain = 0
KHO1 092017Z 18006KT 20/02 A3021 RMK A01 T01960021  RH  031%=      5-min Rain = 0
KHO1 092018Z 17007KT 20/02 A3021 RMK A01 T01960023  RH  032%=      5-min Rain = 0
KHO1 092019Z 17007KT 20/03 A3021 RMK A01 T01960026  RH  032%=      5-min Rain = 0
KHO1 092020Z 18007KT 20/01 A3021 RMK A01 T01970013  RH  029%=      5-min Rain = 0
KHO1 092021Z 19007KT 20/02 A3021 RMK A01 T01980020  RH  031%=      5-min Rain = 0
KHO1 092022Z 20007KT 20/00 A3021 RMK A01 T01990003  RH  027%=      5-min Rain = 0
KHO1 092023Z 19005KT 20/01 A3021 RMK A01 T01990010  RH  028%=      5-min Rain = 0
KHO1 092024Z 18004KT 20/01 A3021 RMK A01 T01980005  RH  027%=      5-min Rain = 0
KHO1 092025Z 19005KT 20/01 A3021 RMK A01 T01980009  RH  028%=      5-min Rain = 0
KHO1 092026Z 20006KT 20/03 A3021 RMK A01 T01990028  RH  032%=      5-min Rain = 0
KHO1 092027Z 21005KT 20/04 A3021 RMK A01 T02000041  RH  035%=      5-min Rain = 0
KHO1 092028Z 22005KT 20/04 A3021 RMK A01 T02000038  RH  034%=      5-min Rain = 0
KHO1 092029Z 19005KT 20/04 A3021 RMK A01 T02010039  RH  034%=      5-min Rain = 0
KHO1 092030Z 18006KT 20/04 A3021 RMK A01 T02010036  RH  034%=      5-min Rain = 0
KHO1 092031Z 19008KT 20/02 A3021 RMK A01 T02000020  RH  030%=      5-min Rain = 0
KHO1 092032Z 18008KT 20/02 A3021 RMK A01 T01980020  RH  031%=      5-min Rain = 0
KHO1 092033Z 18007KT 20/02 A3021 RMK A01 T01970021  RH  031%=      5-min Rain = 0
KHO1 092034Z 18007KT 20/02 A302 RMK A01 T01960022  RH  031%=      5-min Rain = 0
KHO1 092035Z 19008KT 20/02 A3021 RMK A01 T01980023  RH  031%=      5-min Rain = 0
KHO1 092036Z 19006KT 20/02 A302 RMK A01 T01990021  RH  031%=      5-min Rain = 0
KHO1 092037Z 21004KT 20/02 A302 RMK A01 T01990022  RH  031%=      5-min Rain = 0
KHO1 092038Z 21006KT 20/02 A302 RMK A01 T02020024  RH  031%=      5-min Rain = 0
KHO1 092039Z 20007KT 20/01 A302 RMK A01 T02010014  RH  029%=      5-min Rain = 0
KHO1 092040Z 20008KT 20/02 A302 RMK A01 T02020022  RH  030%=      5-min Rain = 0
KHO1 092041Z 21007KT 21/03 A302 RMK A01 T02050025  RH  030%=      5-min Rain = 0
KHO1 092042Z 18009KT 20/01 A302 RMK A01 T02040013  RH  028%=      5-min Rain = 0
KHO1 092043Z 18008KT 20/02 A302 RMK A01 T02020018  RH  029%=      5-min Rain = 0
KHO1 092044Z 20006KT 20/02 A302 RMK A01 T02010019  RH  030%=      5-min Rain = 0
KHO1 092045Z 19006KT 20/02 A302 RMK A01 T02010022  RH  030%=      5-min Rain = 0
KHO1 092046Z 21007KT 20/02 A302 RMK A01 T02000022  RH  031%=      5-min Rain = 0
KHO1 092047Z 20005KT 20/03 A302 RMK A01 T02010026  RH  031%=      5-min Rain = 0
KHO1 092048Z 20006KT 20/03 A302 RMK A01 T02020028  RH  032%=      5-min Rain = 0
KHO1 092049Z 20007KT 20/02 A302 RMK A01 T02020021  RH  030%=      5-min Rain = 0
KHO1 092050Z 19007KT 20/01 A302 RMK A01 T02000014  RH  029%=      5-min Rain = 0
KHO1 092051Z 19006KT 20/01 A302 RMK A01 T02000014  RH  029%=      5-min Rain = 0
KHO1 092052Z 20004KT 20/02 A302 RMK A01 T02000021  RH  030%=      5-min Rain = 0
KHO1 092053Z 21004KT 20/02 A302 RMK A01 T02000020  RH  030%=      5-min Rain = 0
KHO1 092054Z 21004KT 20/02 A302 RMK A01 T02010020  RH  030%=      5-min Rain = 0
KHO1 092055Z 22005KT 20/03 A302 RMK A01 T02020026  RH  031%=      5-min Rain = 0
KHO1 092056Z 19005KT 20/03 A302 RMK A01 T02030031  RH  032%=      5-min Rain = 0
KHO1 092057Z 20009KT 20/03 A302 RMK A01 T02030029  RH  032%=      5-min Rain = 0
KHO1 092058Z 21006KT 20/03 A302 RMK A01 T02020033  RH  033%=      5-min Rain = 0
KHO1 092059Z 22007KT 20/03 A302 RMK A01 T02030034  RH  033%=      5-min Rain = 0
KHO1 092100Z 19007KT 20/03 A302 RMK A01 T02030030  RH  032%=      5-min Rain = 0
KHO1 092101Z 19008KT 20/03 A302 RMK A01 T02030028  RH  031%=      5-min Rain = 0
KHO1 092102Z 21009KT 20/03 A302 RMK A01 T02020025  RH  031%=      5-min Rain = 0
KHO1 092103Z 20008KT 20/03 A302 RMK A01 T02030034  RH  033%=      5-min Rain = 0
KHO1 092104Z 19008KT 20/03 A3019 RMK A01 T02030028  RH  031%=      5-min Rain = 0
KHO1 092105Z 20008KT 20/04 A302 RMK A01 T02040035  RH  033%=      5-min Rain = 0
KHO1 092106Z 21007KT 21/04 A3019 RMK A01 T02050036  RH  033%=      5-min Rain = 0
KHO1 092107Z 19009KT 20/03 A302 RMK A01 T02040028  RH  031%=      5-min Rain = 0
KHO1 092108Z 18006KT 20/02 A3019 RMK A01 T02010022  RH  030%=      5-min Rain = 0
KHO1 092109Z 18005KT 20/03 A3019 RMK A01 T02020032  RH  033%=      5-min Rain = 0
KHO1 092110Z 19006KT 20/02 A3019 RMK A01 T02020021  RH  030%=      5-min Rain = 0
KHO1 092111Z 19009KT 20/03 A3019 RMK A01 T02020031  RH  032%=      5-min Rain = 0
KHO1 092112Z 19007KT 20/03 A3019 RMK A01 T02020031  RH  032%=      5-min Rain = 0
KHO1 092113Z 19005KT 20/03 A3019 RMK A01 T02020033  RH  033%=      5-min Rain = 0
KHO1 092114Z 19004KT 20/03 A3019 RMK A01 T02010028  RH  032%=      5-min Rain = 0
KHO1 092115Z 18004KT 20/03 A3019 RMK A01 T02010028  RH  032%=      5-min Rain = 0
KHO1 092116Z 18005KT 20/03 A3019 RMK A01 T02030031  RH  032%=      5-min Rain = 0
KHO1 092117Z 20007KT 20/02 A3019 RMK A01 T02040022  RH  030%=      5-min Rain = 0
KHO1 092118Z 21007KT 20/02 A3019 RMK A01 T02040017  RH  029%=      5-min Rain = 0
KHO1 092119Z 21007KT 20/01 A3019 RMK A01 T02030009  RH  027%=      5-min Rain = 0
KHO1 092120Z 21007KT 20/01 A3019 RMK A01 T02030011  RH  028%=      5-min Rain = 0
KHO1 092121Z 21008KT 20/02 A3019 RMK A01 T02030018  RH  029%=      5-min Rain = 0
KHO1 092122Z 20005KT 20/03 A3019 RMK A01 T02040027  RH  031%=      5-min Rain = 0
KHO1 092123Z 20005KT 20/03 A3019 RMK A01 T02040026  RH  031%=      5-min Rain = 0
KHO1 092124Z 20008KT 20/02 A3019 RMK A01 T02040023  RH  030%=      5-min Rain = 0
KHO1 092125Z 19006KT 20/02 A3019 RMK A01 T02030018  RH  029%=      5-min Rain = 0
KHO1 092126Z 20007KT 20/02 A3019 RMK A01 T02030021  RH  030%=      5-min Rain = 0
KHO1 092127Z 19008KT 20/02 A3019 RMK A01 T02030023  RH  030%=      5-min Rain = 0
KHO1 092128Z 19007KT 20/02 A3019 RMK A01 T02030024  RH  030%=      5-min Rain = 0
KHO1 092129Z 19007KT 20/02 A3019 RMK A01 T02030019  RH  029%=      5-min Rain = 0
KHO1 092130Z 19008KT 20/02 A3019 RMK A01 T02020017  RH  029%=      5-min Rain = 0
KHO1 092131Z 20008KT 20/03 A3019 RMK A01 T02020026  RH  031%=      5-min Rain = 0
KHO1 092132Z 20007KT 20/03 A3019 RMK A01 T02030026  RH  031%=      5-min Rain = 0
KHO1 092133Z 19006KT 20/03 A3019 RMK A01 T02030026  RH  031%=      5-min Rain = 0
KHO1 092134Z 20005KT 20/02 A3019 RMK A01 T02030024  RH  031%=      5-min Rain = 0
KHO1 092135Z 21006KT 20/02 A3019 RMK A01 T02030024  RH  031%=      5-min Rain = 0
KHO1 092136Z 19008KT 20/03 A3019 RMK A01 T02040030  RH  032%=      5-min Rain = 0
KHO1 092137Z 19007KT 20/02 A3019 RMK A01 T02030020  RH  030%=      5-min Rain = 0
KHO1 092138Z 20005KT 20/02 A3019 RMK A01 T02010019  RH  030%=      5-min Rain = 0
KHO1 092139Z 19006KT 20/02 A3019 RMK A01 T02010022  RH  030%=      5-min Rain = 0
KHO1 092140Z 17009KT 20/03 A3018 RMK A01 T02020026  RH  031%=      5-min Rain = 0
KHO1 092141Z 19007KT 20/02 A3018 RMK A01 T02020024  RH  031%=      5-min Rain = 0
KHO1 092142Z 18007KT 20/03 A3018 RMK A01 T02030029  RH  032%=      5-min Rain = 0
KHO1 092143Z 19008KT 20/02 A3018 RMK A01 T02020024  RH  031%=      5-min Rain = 0
KHO1 092144Z 20009KT 20/02 A3018 RMK A01 T02010020  RH  030%=      5-min Rain = 0
KHO1 092145Z 21007KT 20/02 A3018 RMK A01 T02000019  RH  030%=      5-min Rain = 0
KHO1 092146Z 20007KT 20/02 A3018 RMK A01 T02000017  RH  029%=      5-min Rain = 0
KHO1 092147Z 20007KT 20/02 A3018 RMK A01 T02010020  RH  030%=      5-min Rain = 0
KHO1 092148Z 19008KT 20/02 A3018 RMK A01 T02010023  RH  031%=      5-min Rain = 0
KHO1 092149Z 19008KT 20/02 A3018 RMK A01 T02000019  RH  030%=      5-min Rain = 0
KHO1 092150Z 20006KT 20/02 A3018 RMK A01 T02000021  RH  030%=      5-min Rain = 0
KHO1 092151Z 21007KT 20/03 A3018 RMK A01 T02010026  RH  031%=      5-min Rain = 0
KHO1 092152Z 20009KT 20/02 A3018 RMK A01 T02010023  RH  031%=      5-min Rain = 0
KHO1 092153Z 19008KT 20/02 A3018 RMK A01 T02000019  RH  030%=      5-min Rain = 0
KHO1 092154Z 19007KT 20/02 A3018 RMK A01 T01990018  RH  030%=      5-min Rain = 0
KHO1 092155Z 18007KT 20/02 A3018 RMK A01 T01990021  RH  031%=      5-min Rain = 0
KHO1 092156Z 20008KT 20/02 A3018 RMK A01 T02000023  RH  031%=      5-min Rain = 0
KHO1 092157Z 20007KT 20/02 A3018 RMK A01 T02000015  RH  029%=      5-min Rain = 0
KHO1 092158Z 21006KT 20/01 A3018 RMK A01 T02000013  RH  029%=      5-min Rain = 0
KHO1 092159Z 20006KT 20/02 A3018 RMK A01 T02010019  RH  030%=      5-min Rain = 0
KHO1 092200Z 21008KT 20/02 A3018 RMK A01 T02020015  RH  029%=      5-min Rain = 0
KHO1 092201Z 22008KT 20/01 A3018 RMK A01 T02020014  RH  029%=      5-min Rain = 0
KHO1 092202Z 22007KT 20/01 A3018 RMK A01 T02020014  RH  028%=      5-min Rain = 0
KHO1 092203Z 20007KT 20/02 A3018 RMK A01 T02020019  RH  030%=      5-min Rain = 0
KHO1 092204Z 20007KT 20/02 A3018 RMK A01 T02020019  RH  030%=      5-min Rain = 0
KHO1 092205Z 19008KT 20/02 A3018 RMK A01 T02010018  RH  030%=      5-min Rain = 0
KHO1 092206Z 20007KT 20/02 A3018 RMK A01 T02000015  RH  029%=      5-min Rain = 0
KHO1 092207Z 19007KT 20/02 A3018 RMK A01 T01990019  RH  030%=      5-min Rain = 0
KHO1 092208Z 19007KT 20/02 A3018 RMK A01 T01990019  RH  030%=      5-min Rain = 0
KHO1 092209Z 19007KT 20/02 A3018 RMK A01 T01990021  RH  030%=      5-min Rain = 0
KHO1 092210Z 19007KT 20/02 A3018 RMK A01 T01990019  RH  030%=      5-min Rain = 0
KHO1 092211Z 20005KT 20/02 A3018 RMK A01 T02000023  RH  031%=      5-min Rain = 0
KHO1 092212Z 19007KT 20/02 A3018 RMK A01 T02000018  RH  030%=      5-min Rain = 0
KHO1 092213Z 20007KT 20/02 A3018 RMK A01 T01990021  RH  031%=      5-min Rain = 0
KHO1 092214Z 20007KT 20/02 A3018 RMK A01 T01990019  RH  030%=      5-min Rain = 0
KHO1 092215Z 19005KT 20/02 A3018 RMK A01 T01990022  RH  031%=      5-min Rain = 0
KHO1 092216Z 20006KT 20/02 A3018 RMK A01 T02000024  RH  031%=      5-min Rain = 0
KHO1 092217Z 21006KT 20/02 A3018 RMK A01 T02000018  RH  030%=      5-min Rain = 0
KHO1 092218Z 20009KT 20/01 A3018 RMK A01 T02000010  RH  028%=      5-min Rain = 0
KHO1 092219Z 21008KT 20/01 A3018 RMK A01 T01990006  RH  027%=      5-min Rain = 0
KHO1 092220Z 21008KT 20/01 A3018 RMK A01 T02000006  RH  027%=      5-min Rain = 0
KHO1 092221Z 21008KT 20/01 A3018 RMK A01 T02010005  RH  027%=      5-min Rain = 0
KHO1 092222Z 21008KT 20/00 A3018 RMK A01 T02010002  RH  026%=      5-min Rain = 0
KHO1 092223Z 20007KT 20/01 A3017 RMK A01 T02020005  RH  027%=      5-min Rain = 0
KHO1 092224Z 19007KT 20/01 A3018 RMK A01 T02020005  RH  027%=      5-min Rain = 0
KHO1 092225Z 20006KT 20/01 A3017 RMK A01 T02020006  RH  027%=      5-min Rain = 0
KHO1 092226Z 22006KT 20/01 A3017 RMK A01 T02020009  RH  027%=      5-min Rain = 0
KHO1 092227Z 21008KT 20/01 A3017 RMK A01 T02020006  RH  027%=      5-min Rain = 0
KHO1 092228Z 20007KT 20/01 A3017 RMK A01 T02010008  RH  028%=      5-min Rain = 0
KHO1 092229Z 20008KT 20/01 A3017 RMK A01 T02000012  RH  028%=      5-min Rain = 0
KHO1 092230Z 20008KT 20/01 A3017 RMK A01 T01990014  RH  029%=      5-min Rain = 0
KHO1 092231Z 20007KT 20/02 A3017 RMK A01 T01990017  RH  030%=      5-min Rain = 0
KHO1 092232Z 21006KT 20/02 A3017 RMK A01 T01990015  RH  029%=      5-min Rain = 0
KHO1 092233Z 21007KT 20/01 A3017 RMK A01 T02000014  RH  029%=      5-min Rain = 0
KHO1 092234Z 21008KT 20/01 A3017 RMK A01 T02000014  RH  029%=      5-min Rain = 0
KHO1 092235Z 21005KT 20/02 A3017 RMK A01 T02000016  RH  029%=      5-min Rain = 0
KHO1 092236Z 21007KT 20/02 A3017 RMK A01 T02010018  RH  029%=      5-min Rain = 0
KHO1 092237Z 21007KT 20/02 A3017 RMK A01 T02020018  RH  030%=      5-min Rain = 0
KHO1 092238Z 21009KT 20/01 A3017 RMK A01 T02020012  RH  028%=      5-min Rain = 0
KHO1 092239Z 20009KT 20/01 A3017 RMK A01 T02010010  RH  028%=      5-min Rain = 0
KHO1 092240Z 20008KT 20/01 A3017 RMK A01 T01990006  RH  027%=      5-min Rain = 0
KHO1 092241Z 19008KT 20/01 A3017 RMK A01 T01980013  RH  029%=      5-min Rain = 0
KHO1 092242Z 19008KT 20/02 A3017 RMK A01 T01970017  RH  030%=      5-min Rain = 0
KHO1 092243Z 20006KT 20/02 A3017 RMK A01 T01960023  RH  032%=      5-min Rain = 0
KHO1 092244Z 20007KT 20/03 A3017 RMK A01 T01950025  RH  032%=      5-min Rain = 0
KHO1 092245Z 20008KT 19/03 A3017 RMK A01 T01940025  RH  032%=      5-min Rain = 0
KHO1 092246Z 20006KT 19/03 A3017 RMK A01 T01940025  RH  033%=      5-min Rain = 0
KHO1 092247Z 20006KT 19/03 A3017 RMK A01 T01940025  RH  032%=      5-min Rain = 0
KHO1 092248Z 20007KT 19/02 A3017 RMK A01 T01940023  RH  032%=      5-min Rain = 0
KHO1 092249Z 20008KT 19/02 A3017 RMK A01 T01940021  RH  032%=      5-min Rain = 0
KHO1 092250Z 20008KT 19/02 A3017 RMK A01 T01940021  RH  031%=      5-min Rain = 0
KHO1 092251Z 21008KT 20/02 A3017 RMK A01 T01950020  RH  031%=      5-min Rain = 0
KHO1 092252Z 21007KT 20/02 A3017 RMK A01 T01950019  RH  031%=      5-min Rain = 0
KHO1 092253Z 20007KT 20/02 A3017 RMK A01 T01960022  RH  031%=      5-min Rain = 0
KHO1 092254Z 20006KT 20/03 A3017 RMK A01 T01960028  RH  033%=      5-min Rain = 0
KHO1 092255Z 19007KT 20/03 A3017 RMK A01 T01960025  RH  032%=      5-min Rain = 0
KHO1 092256Z 20007KT 20/03 A3017 RMK A01 T01960028  RH  033%=      5-min Rain = 0
KHO1 092257Z 20005KT 20/03 A3017 RMK A01 T01960033  RH  034%=      5-min Rain = 0
KHO1 092258Z 20005KT 20/03 A3017 RMK A01 T01950034  RH  034%=      5-min Rain = 0
KHO1 092259Z 19007KT 20/03 A3017 RMK A01 T01950034  RH  034%=      5-min Rain = 0
KHO1 092300Z 20007KT 19/03 A3017 RMK A01 T01940033  RH  034%=      5-min Rain = 0
KHO1 092301Z 20006KT 19/03 A3017 RMK A01 T01930033  RH  035%=      5-min Rain = 0
KHO1 092302Z 20006KT 19/03 A3017 RMK A01 T01930034  RH  035%=      5-min Rain = 0
KHO1 092303Z 20006KT 19/03 A3017 RMK A01 T01920033  RH  035%=      5-min Rain = 0
KHO1 092304Z 19006KT 19/04 A3017 RMK A01 T01920036  RH  036%=      5-min Rain = 0
KHO1 092305Z 19007KT 19/04 A3017 RMK A01 T01910037  RH  036%=      5-min Rain = 0
KHO1 092306Z 20006KT 19/04 A3017 RMK A01 T01900035  RH  036%=      5-min Rain = 0
KHO1 092307Z 20007KT 19/03 A3017 RMK A01 T01890033  RH  035%=      5-min Rain = 0
KHO1 092308Z 20006KT 19/03 A3017 RMK A01 T01880034  RH  036%=      5-min Rain = 0
KHO1 092309Z 20007KT 19/03 A3017 RMK A01 T01870030  RH  035%=      5-min Rain = 0
KHO1 092310Z 21006KT 19/03 A3017 RMK A01 T01870028  RH  035%=      5-min Rain = 0
KHO1 092311Z 20006KT 19/03 A3017 RMK A01 T01860033  RH  036%=      5-min Rain = 0
KHO1 092312Z 20007KT 19/03 A3017 RMK A01 T01860032  RH  036%=      5-min Rain = 0
KHO1 092313Z 20007KT 18/04 A3017 RMK A01 T01840035  RH  037%=      5-min Rain = 0
KHO1 092314Z 20007KT 18/04 A3017 RMK A01 T01830037  RH  038%=      5-min Rain = 0
KHO1 092315Z 20007KT 18/04 A3017 RMK A01 T01830037  RH  038%=      5-min Rain = 0
KHO1 092316Z 20007KT 18/04 A3017 RMK A01 T01820038  RH  038%=      5-min Rain = 0
KHO1 092317Z 20006KT 18/04 A3017 RMK A01 T01810040  RH  039%=      5-min Rain = 0
KHO1 092318Z 21006KT 18/04 A3017 RMK A01 T01810040  RH  039%=      5-min Rain = 0
KHO1 092319Z 20006KT 18/04 A3017 RMK A01 T01800041  RH  040%=      5-min Rain = 0
KHO1 092320Z 21006KT 18/04 A3017 RMK A01 T01790042  RH  040%=      5-min Rain = 0
KHO1 092321Z 20006KT 18/04 A3017 RMK A01 T01780044  RH  041%=      5-min Rain = 0
KHO1 092322Z 21006KT 18/05 A3017 RMK A01 T01780045  RH  041%=      5-min Rain = 0
KHO1 092323Z 20005KT 18/05 A3017 RMK A01 T01770046  RH  042%=      5-min Rain = 0
KHO1 092324Z 20006KT 18/05 A3017 RMK A01 T01760047  RH  042%=      5-min Rain = 0
KHO1 092325Z 20006KT 18/05 A3017 RMK A01 T01760048  RH  043%=      5-min Rain = 0
KHO1 092326Z 20006KT 18/05 A3017 RMK A01 T01750050  RH  044%=      5-min Rain = 0
KHO1 092327Z 20006KT 17/05 A3017 RMK A01 T01740051  RH  044%=      5-min Rain = 0
KHO1 092328Z 20006KT 17/05 A3017 RMK A01 T01730052  RH  045%=      5-min Rain = 0
KHO1 092329Z 21006KT 17/05 A3017 RMK A01 T01720053  RH  045%=      5-min Rain = 0
KHO1 092330Z 21006KT 17/05 A3017 RMK A01 T01720053  RH  046%=      5-min Rain = 0
KHO1 092331Z 21006KT 17/05 A3017 RMK A01 T01710053  RH  046%=      5-min Rain = 0
KHO1 092332Z 21007KT 17/05 A3017 RMK A01 T01700053  RH  046%=      5-min Rain = 0
KHO1 092333Z 21007KT 17/05 A3017 RMK A01 T01700052  RH  046%=      5-min Rain = 0
KHO1 092334Z 21007KT 17/05 A3017 RMK A01 T01700052  RH  046%=      5-min Rain = 0
KHO1 092335Z 21007KT 17/05 A3017 RMK A01 T01690052  RH  046%=      5-min Rain = 0
KHO1 092336Z 21007KT 17/05 A3017 RMK A01 T01680052  RH  046%=      5-min Rain = 0
KHO1 092337Z 21007KT 17/05 A3017 RMK A01 T01680052  RH  046%=      5-min Rain = 0
KHO1 092338Z 21008KT 17/05 A3017 RMK A01 T01670052  RH  046%=      5-min Rain = 0
KHO1 092339Z 21007KT 17/05 A3017 RMK A01 T01660053  RH  047%=      5-min Rain = 0
KHO1 092340Z 21007KT 17/05 A3017 RMK A01 T01650053  RH  047%=      5-min Rain = 0
KHO1 092341Z 21007KT 17/05 A3017 RMK A01 T01650054  RH  048%=      5-min Rain = 0
KHO1 092342Z 21007KT 16/05 A3017 RMK A01 T01640054  RH  048%=      5-min Rain = 0
KHO1 092343Z 21007KT 16/05 A3017 RMK A01 T01640054  RH  048%=      5-min Rain = 0
KHO1 092344Z 21007KT 16/05 A3017 RMK A01 T01630054  RH  048%=      5-min Rain = 0
KHO1 092345Z 21007KT 16/05 A3017 RMK A01 T01630054  RH  049%=      5-min Rain = 0
KHO1 092346Z 21007KT 16/06 A3017 RMK A01 T01620055  RH  049%=      5-min Rain = 0
KHO1 092347Z 21007KT 16/06 A3017 RMK A01 T01610055  RH  049%=      5-min Rain = 0
KHO1 092348Z 21007KT 16/06 A3017 RMK A01 T01610055  RH  049%=      5-min Rain = 0
KHO1 092349Z 21007KT 16/06 A3017 RMK A01 T01600055  RH  050%=      5-min Rain = 0
KHO1 092350Z 21007KT 16/06 A3017 RMK A01 T01600055  RH  050%=      5-min Rain = 0
KHO1 092351Z 21007KT 16/06 A3017 RMK A01 T01590055  RH  050%=      5-min Rain = 0
KHO1 092352Z 21007KT 16/06 A3017 RMK A01 T01590055  RH  050%=      5-min Rain = 0
KHO1 092353Z 21007KT 16/06 A3017 RMK A01 T01580055  RH  050%=      5-min Rain = 0
KHO1 092354Z 21007KT 16/06 A3017 RMK A01 T01570055  RH  051%=      5-min Rain = 0
KHO1 092355Z 21007KT 16/06 A3017 RMK A01 T01570056  RH  051%=      5-min Rain = 0
KHO1 092356Z 21007KT 16/06 A3017 RMK A01 T01560056  RH  051%=      5-min Rain = 0
KHO1 092357Z 21007KT 16/06 A3017 RMK A01 T01550056  RH  052%=      5-min Rain = 0
KHO1 092358Z 21007KT 16/06 A3017 RMK A01 T01550056  RH  052%=      5-min Rain = 0
KHO1 092359Z 21007KT 16/06 A3017 RMK A01 T01550056  RH  052%=      5-min Rain = 0
KHO1 100000Z 21007KT 15/06 A3017 RMK A01 T01540056  RH  052%=      5-min Rain = 0
KHO1 100001Z 20007KT 15/06 A3017 RMK A01 T01540056  RH  052%=      5-min Rain = 0
KHO1 100002Z 20006KT 15/06 A3017 RMK A01 T01540056  RH  052%=      5-min Rain = 0
KHO1 100003Z 21006KT 15/06 A3017 RMK A01 T01530057  RH  052%=      5-min Rain = 0
KHO1 100004Z 20005KT 15/06 A3017 RMK A01 T01520058  RH  053%=      5-min Rain = 0
KHO1 100005Z 19005KT 15/06 A3017 RMK A01 T01510058  RH  054%=      5-min Rain = 0
KHO1 100006Z 17005KT 15/06 A3017 RMK A01 T01490061  RH  056%=      5-min Rain = 0
KHO1 100007Z 16005KT 15/06 A3017 RMK A01 T01460063  RH  057%=      5-min Rain = 0
KHO1 100008Z 18005KT 14/06 A3017 RMK A01 T01440064  RH  058%=      5-min Rain = 0
KHO1 100009Z 18004KT 14/07 A3017 RMK A01 T01440065  RH  059%=      5-min Rain = 0
KHO1 100010Z 18004KT 14/07 A3017 RMK A01 T01440065  RH  059%=      5-min Rain = 0
KHO1 100011Z 18005KT 14/07 A3017 RMK A01 T01440065  RH  059%=      5-min Rain = 0
KHO1 100012Z 18005KT 14/07 A3016 RMK A01 T01430065  RH  059%=      5-min Rain = 0
KHO1 100013Z 18004KT 14/07 A3016 RMK A01 T01430065  RH  059%=      5-min Rain = 0
KHO1 100014Z 19005KT 14/07 A3016 RMK A01 T01430066  RH  060%=      5-min Rain = 0
KHO1 100015Z 19004KT 14/07 A3017 RMK A01 T01420066  RH  060%=      5-min Rain = 0
KHO1 100016Z 19005KT 14/07 A3016 RMK A01 T01400066  RH  061%=      5-min Rain = 0
KHO1 100017Z 19005KT 14/07 A3017 RMK A01 T01390066  RH  061%=      5-min Rain = 0
KHO1 100018Z 19005KT 14/07 A3017 RMK A01 T01390066  RH  061%=      5-min Rain = 0
KHO1 100019Z 18005KT 14/07 A3017 RMK A01 T01380066  RH  062%=      5-min Rain = 0
KHO1 100020Z 18005KT 14/07 A3017 RMK A01 T01370067  RH  062%=      5-min Rain = 0
KHO1 100021Z 19005KT 14/07 A3017 RMK A01 T01370067  RH  063%=      5-min Rain = 0
KHO1 100022Z 19005KT 14/07 A3017 RMK A01 T01360068  RH  063%=      5-min Rain = 0
KHO1 100023Z 18005KT 14/07 A3017 RMK A01 T01350068  RH  064%=      5-min Rain = 0
KHO1 100024Z 18005KT 13/07 A3017 RMK A01 T01340068  RH  064%=      5-min Rain = 0
KHO1 100025Z 18005KT 13/07 A3017 RMK A01 T01330068  RH  065%=      5-min Rain = 0
KHO1 100026Z 18005KT 13/07 A3017 RMK A01 T01320068  RH  065%=      5-min Rain = 0
KHO1 100027Z 19005KT 13/07 A3017 RMK A01 T01330069  RH  065%=      5-min Rain = 0
KHO1 100028Z 18005KT 13/07 A3017 RMK A01 T01330069  RH  065%=      5-min Rain = 0
KHO1 100029Z 18005KT 13/07 A3017 RMK A01 T01320069  RH  066%=      5-min Rain = 0
KHO1 100030Z 18005KT 13/07 A3016 RMK A01 T01310069  RH  066%=      5-min Rain = 0
KHO1 100031Z 18005KT 13/07 A3016 RMK A01 T01320070  RH  066%=      5-min Rain = 0
KHO1 100032Z 18005KT 13/07 A3016 RMK A01 T01320070  RH  066%=      5-min Rain = 0
KHO1 100033Z 18005KT 13/07 A3016 RMK A01 T01310070  RH  066%=      5-min Rain = 0
KHO1 100034Z 18005KT 13/07 A3016 RMK A01 T01310071  RH  067%=      5-min Rain = 0
KHO1 100035Z 18005KT 13/07 A3016 RMK A01 T01310071  RH  067%=      5-min Rain = 0
KHO1 100036Z 18005KT 13/07 A3016 RMK A01 T01300071  RH  067%=      5-min Rain = 0
KHO1 100037Z 18006KT 13/07 A3016 RMK A01 T01300071  RH  067%=      5-min Rain = 0
KHO1 100038Z 18005KT 13/07 A3017 RMK A01 T01310071  RH  067%=      5-min Rain = 0
KHO1 100039Z 18005KT 13/07 A3017 RMK A01 T01320072  RH  067%=      5-min Rain = 0
KHO1 100040Z 18005KT 13/07 A3017 RMK A01 T01330072  RH  067%=      5-min Rain = 0
KHO1 100041Z 18005KT 13/07 A3017 RMK A01 T01330072  RH  066%=      5-min Rain = 0
KHO1 100042Z 17004KT 13/07 A3017 RMK A01 T01330072  RH  066%=      5-min Rain = 0
KHO1 100043Z 18005KT 13/07 A3017 RMK A01 T01330071  RH  066%=      5-min Rain = 0
KHO1 100044Z 18005KT 13/07 A3017 RMK A01 T01330071  RH  066%=      5-min Rain = 0
KHO1 100045Z 17005KT 13/07 A3017 RMK A01 T01330070  RH  066%=      5-min Rain = 0
KHO1 100046Z 17005KT 13/07 A3017 RMK A01 T01320070  RH  066%=      5-min Rain = 0
KHO1 100047Z 17004KT 13/07 A3017 RMK A01 T01320070  RH  066%=      5-min Rain = 0
KHO1 100048Z 17005KT 13/07 A3017 RMK A01 T01310070  RH  066%=      5-min Rain = 0
KHO1 100049Z 17004KT 13/07 A3017 RMK A01 T01300070  RH  067%=      5-min Rain = 0
KHO1 100050Z 17005KT 13/07 A3017 RMK A01 T01300070  RH  067%=      5-min Rain = 0
KHO1 100051Z 17005KT 13/07 A3017 RMK A01 T01290070  RH  067%=      5-min Rain = 0
KHO1 100052Z 17005KT 13/07 A3017 RMK A01 T01280069  RH  067%=      5-min Rain = 0
KHO1 100053Z 17005KT 13/07 A3017 RMK A01 T01270069  RH  068%=      5-min Rain = 0
KHO1 100054Z 17005KT 13/07 A3017 RMK A01 T01270069  RH  068%=      5-min Rain = 0
KHO1 100055Z 17005KT 13/07 A3017 RMK A01 T01270069  RH  068%=      5-min Rain = 0
KHO1 100056Z 18005KT 13/07 A3017 RMK A01 T01280069  RH  067%=      5-min Rain = 0
KHO1 100057Z 18005KT 13/07 A3017 RMK A01 T01280070  RH  068%=      5-min Rain = 0
KHO1 100058Z 18005KT 13/07 A3017 RMK A01 T01270069  RH  068%=      5-min Rain = 0
KHO1 100059Z 18005KT 13/07 A3017 RMK A01 T01260068  RH  068%=      5-min Rain = 0
KHO1 100100Z 18005KT 13/07 A3017 RMK A01 T01250069  RH  068%=      5-min Rain = 0
KHO1 100101Z 19005KT 12/07 A3017 RMK A01 T01240069  RH  069%=      5-min Rain = 0
KHO1 100102Z 19005KT 12/07 A3017 RMK A01 T01230069  RH  069%=      5-min Rain = 0
KHO1 100103Z 18005KT 12/07 A3017 RMK A01 T01230069  RH  070%=      5-min Rain = 0
KHO1 100104Z 18005KT 12/07 A3017 RMK A01 T01220069  RH  070%=      5-min Rain = 0
KHO1 100105Z 18006KT 12/07 A3017 RMK A01 T01210070  RH  071%=      5-min Rain = 0
KHO1 100106Z 19005KT 12/07 A3017 RMK A01 T01200070  RH  071%=      5-min Rain = 0
KHO1 100107Z 19005KT 12/07 A3017 RMK A01 T01200071  RH  072%=      5-min Rain = 0
KHO1 100108Z 19005KT 12/07 A3017 RMK A01 T01200071  RH  072%=      5-min Rain = 0
KHO1 100109Z 19005KT 12/07 A3017 RMK A01 T01200071  RH  072%=      5-min Rain = 0
KHO1 100110Z 19005KT 12/07 A3017 RMK A01 T01200071  RH  072%=      5-min Rain = 0
KHO1 100111Z 18005KT 12/07 A3017 RMK A01 T01200072  RH  072%=      5-min Rain = 0
KHO1 100112Z 18004KT 12/07 A3017 RMK A01 T01200072  RH  072%=      5-min Rain = 0
KHO1 100113Z 18005KT 12/07 A3017 RMK A01 T01200072  RH  072%=      5-min Rain = 0
KHO1 100114Z 18004KT 12/07 A3017 RMK A01 T01210073  RH  072%=      5-min Rain = 0
KHO1 100115Z 18004KT 12/07 A3017 RMK A01 T01210073  RH  072%=      5-min Rain = 0
KHO1 100116Z 19004KT 12/07 A3017 RMK A01 T01220073  RH  072%=      5-min Rain = 0
KHO1 100117Z 19004KT 12/07 A3017 RMK A01 T01220072  RH  072%=      5-min Rain = 0
KHO1 100118Z 19004KT 12/07 A3017 RMK A01 T01210072  RH  072%=      5-min Rain = 0
KHO1 100119Z 18004KT 12/07 A3017 RMK A01 T01210072  RH  072%=      5-min Rain = 0
KHO1 100120Z 18004KT 12/07 A3017 RMK A01 T01210072  RH  072%=      5-min Rain = 0
KHO1 100121Z 18004KT 12/07 A3017 RMK A01 T01210073  RH  072%=      5-min Rain = 0
KHO1 100122Z 19004KT 12/07 A3017 RMK A01 T01220073  RH  072%=      5-min Rain = 0
KHO1 100123Z 19004KT 12/07 A3017 RMK A01 T01220073  RH  072%=      5-min Rain = 0
KHO1 100124Z 19004KT 12/07 A3017 RMK A01 T01220073  RH  072%=      5-min Rain = 0
KHO1 100125Z 18004KT 12/07 A3017 RMK A01 T01220072  RH  072%=      5-min Rain = 0
KHO1 100126Z 18004KT 12/07 A3017 RMK A01 T01210072  RH  072%=      5-min Rain = 0
KHO1 100127Z 19004KT 12/07 A3017 RMK A01 T01200072  RH  072%=      5-min Rain = 0
KHO1 100128Z 19004KT 12/07 A3017 RMK A01 T01200072  RH  072%=      5-min Rain = 0
KHO1 100129Z 19004KT 12/07 A3017 RMK A01 T01190072  RH  073%=      5-min Rain = 0
KHO1 100130Z 19004KT 12/07 A3017 RMK A01 T01190072  RH  073%=      5-min Rain = 0
KHO1 100131Z 19004KT 12/07 A3017 RMK A01 T01180072  RH  073%=      5-min Rain = 0
KHO1 100132Z 19004KT 12/07 A3017 RMK A01 T01170072  RH  074%=      5-min Rain = 0
KHO1 100133Z 19004KT 12/07 A3017 RMK A01 T01170072  RH  074%=      5-min Rain = 0
KHO1 100134Z 19005KT 12/07 A3017 RMK A01 T01160072  RH  074%=      5-min Rain = 0
KHO1 100135Z 19005KT 12/07 A3017 RMK A01 T01150071  RH  075%=      5-min Rain = 0
KHO1 100136Z 19005KT 11/07 A3017 RMK A01 T01140071  RH  075%=      5-min Rain = 0
KHO1 100137Z 19006KT 11/07 A3017 RMK A01 T01130072  RH  076%=      5-min Rain = 0
KHO1 100138Z 19005KT 11/07 A3017 RMK A01 T01130072  RH  076%=      5-min Rain = 0
KHO1 100139Z 19005KT 11/07 A3017 RMK A01 T01120072  RH  076%=      5-min Rain = 0
KHO1 100140Z 19006KT 11/07 A3017 RMK A01 T01120072  RH  076%=      5-min Rain = 0
KHO1 100141Z 19006KT 11/07 A3017 RMK A01 T01120072  RH  077%=      5-min Rain = 0
KHO1 100142Z 19005KT 11/07 A3017 RMK A01 T01120073  RH  077%=      5-min Rain = 0
KHO1 100143Z 19005KT 11/07 A3017 RMK A01 T01120073  RH  077%=      5-min Rain = 0
KHO1 100144Z 19005KT 11/07 A3017 RMK A01 T01120073  RH  077%=      5-min Rain = 0
KHO1 100145Z 19005KT 11/07 A3017 RMK A01 T01120074  RH  077%=      5-min Rain = 0
KHO1 100146Z 19005KT 11/07 A3017 RMK A01 T01120074  RH  077%=      5-min Rain = 0
KHO1 100147Z 18004KT 11/07 A3017 RMK A01 T01120074  RH  077%=      5-min Rain = 0
KHO1 100148Z 18004KT 11/08 A3017 RMK A01 T01130075  RH  077%=      5-min Rain = 0
KHO1 100149Z 18004KT 11/08 A3017 RMK A01 T01140075  RH  077%=      5-min Rain = 0
KHO1 100150Z 18004KT 12/08 A3017 RMK A01 T01150075  RH  077%=      5-min Rain = 0
KHO1 100151Z 18004KT 12/08 A3017 RMK A01 T01150075  RH  076%=      5-min Rain = 0
KHO1 100152Z 18003KT 12/08 A3017 RMK A01 T01160075  RH  076%=      5-min Rain = 0
KHO1 100153Z 17003KT 12/07 A3017 RMK A01 T01160074  RH  076%=      5-min Rain = 0
KHO1 100154Z 17003KT 12/07 A3017 RMK A01 T01160074  RH  076%=      5-min Rain = 0
KHO1 100155Z 17003KT 12/07 A3017 RMK A01 T01160074  RH  076%=      5-min Rain = 0
KHO1 100156Z 16003KT 12/07 A3017 RMK A01 T01150073  RH  075%=      5-min Rain = 0
KHO1 100157Z 17003KT 12/07 A3017 RMK A01 T01150073  RH  075%=      5-min Rain = 0
KHO1 100158Z 17003KT 12/07 A3017 RMK A01 T01160074  RH  075%=      5-min Rain = 0
KHO1 100159Z 16003KT 12/07 A3017 RMK A01 T01160074  RH  075%=      5-min Rain = 0
KHO1 100200Z 16003KT 12/07 A3017 RMK A01 T01160074  RH  075%=      5-min Rain = 0
KHO1 100201Z 15002KT 12/07 A3017 RMK A01 T01170073  RH  075%=      5-min Rain = 0
KHO1 100202Z 14003KT 12/07 A3017 RMK A01 T01170073  RH  074%=      5-min Rain = 0
KHO1 100203Z 14002KT 12/07 A3017 RMK A01 T01160072  RH  074%=      5-min Rain = 0
KHO1 100204Z 14002KT 12/07 A3017 RMK A01 T01160072  RH  074%=      5-min Rain = 0
KHO1 100205Z 15002KT 12/07 A3017 RMK A01 T01160071  RH  074%=      5-min Rain = 0
KHO1 100206Z 15003KT 12/07 A3017 RMK A01 T01160072  RH  074%=      5-min Rain = 0
KHO1 100207Z 15003KT 12/07 A3017 RMK A01 T01160072  RH  074%=      5-min Rain = 0
KHO1 100208Z 15003KT 12/07 A3017 RMK A01 T01160072  RH  074%=      5-min Rain = 0
KHO1 100209Z 15003KT 12/07 A3017 RMK A01 T01170072  RH  074%=      5-min Rain = 0
KHO1 100210Z 16003KT 12/07 A3017 RMK A01 T01170073  RH  074%=      5-min Rain = 0
KHO1 100211Z 17003KT 12/07 A3017 RMK A01 T01170072  RH  074%=      5-min Rain = 0
KHO1 100212Z 17003KT 12/07 A3017 RMK A01 T01170071  RH  074%=      5-min Rain = 0
KHO1 100213Z 17003KT 12/07 A3017 RMK A01 T01170071  RH  074%=      5-min Rain = 0
KHO1 100214Z 17003KT 12/07 A3017 RMK A01 T01160070  RH  074%=      5-min Rain = 0
KHO1 100215Z 18003KT 12/07 A3017 RMK A01 T01150070  RH  074%=      5-min Rain = 0
KHO1 100216Z 18003KT 11/07 A3017 RMK A01 T01140070  RH  075%=      5-min Rain = 0
KHO1 100217Z 18004KT 11/07 A3017 RMK A01 T01130070  RH  075%=      5-min Rain = 0
KHO1 100218Z 18003KT 11/07 A3017 RMK A01 T01120070  RH  075%=      5-min Rain = 0
KHO1 100219Z 18004KT 11/07 A3017 RMK A01 T01120070  RH  076%=      5-min Rain = 0
KHO1 100220Z 18004KT 11/07 A3017 RMK A01 T01110070  RH  076%=      5-min Rain = 0
KHO1 100221Z 18004KT 11/07 A3017 RMK A01 T01100070  RH  076%=      5-min Rain = 0
KHO1 100222Z 18004KT 11/07 A3017 RMK A01 T01100071  RH  077%=      5-min Rain = 0
KHO1 100223Z 18004KT 11/07 A3017 RMK A01 T01100071  RH  077%=      5-min Rain = 0
KHO1 100224Z 18004KT 11/07 A3017 RMK A01 T01100072  RH  077%=      5-min Rain = 0
KHO1 100225Z 18004KT 11/07 A3017 RMK A01 T01100071  RH  077%=      5-min Rain = 0
KHO1 100226Z 18004KT 11/07 A3017 RMK A01 T01090071  RH  077%=      5-min Rain = 0
KHO1 100227Z 18004KT 11/07 A3017 RMK A01 T01080070  RH  077%=      5-min Rain = 0
KHO1 100228Z 18005KT 11/07 A3017 RMK A01 T01070069  RH  077%=      5-min Rain = 0
KHO1 100229Z 19005KT 11/07 A3017 RMK A01 T01060069  RH  078%=      5-min Rain = 0
KHO1 100230Z 19005KT 11/07 A3017 RMK A01 T01050069  RH  078%=      5-min Rain = 0
KHO1 100231Z 19005KT 10/07 A3017 RMK A01 T01030069  RH  079%=      5-min Rain = 0
KHO1 100232Z 19005KT 10/07 A3017 RMK A01 T01030069  RH  080%=      5-min Rain = 0
KHO1 100233Z 19005KT 10/07 A3017 RMK A01 T01020070  RH  080%=      5-min Rain = 0
KHO1 100234Z 19005KT 10/07 A3017 RMK A01 T01020070  RH  081%=      5-min Rain = 0
KHO1 100235Z 19004KT 10/07 A3017 RMK A01 T01010070  RH  081%=      5-min Rain = 0
KHO1 100236Z 19004KT 10/07 A3017 RMK A01 T01010071  RH  082%=      5-min Rain = 0
KHO1 100237Z 19004KT 10/07 A3017 RMK A01 T01010071  RH  082%=      5-min Rain = 0
KHO1 100238Z 19004KT 10/07 A3017 RMK A01 T01010072  RH  082%=      5-min Rain = 0
KHO1 100239Z 19004KT 10/07 A3017 RMK A01 T01010073  RH  082%=      5-min Rain = 0
KHO1 100240Z 19004KT 10/07 A3017 RMK A01 T01020073  RH  083%=      5-min Rain = 0
KHO1 100241Z 19005KT 10/07 A3017 RMK A01 T01020073  RH  082%=      5-min Rain = 0
KHO1 100242Z 19005KT 10/07 A3017 RMK A01 T01020073  RH  082%=      5-min Rain = 0
KHO1 100243Z 20005KT 10/07 A3017 RMK A01 T01020073  RH  082%=      5-min Rain = 0
KHO1 100244Z 20005KT 10/07 A3017 RMK A01 T01010073  RH  082%=      5-min Rain = 0
KHO1 100245Z 20005KT 10/07 A3017 RMK A01 T01010072  RH  082%=      5-min Rain = 0
KHO1 100246Z 20005KT 10/07 A3017 RMK A01 T01010072  RH  082%=      5-min Rain = 0
KHO1 100247Z 20006KT 10/07 A3017 RMK A01 T01000072  RH  083%=      5-min Rain = 0
KHO1 100248Z 20006KT 10/07 A3017 RMK A01 T01000072  RH  083%=      5-min Rain = 0
KHO1 100249Z 20006KT 10/07 A3017 RMK A01 T01000072  RH  083%=      5-min Rain = 0
KHO1 100250Z 20006KT 10/07 A3017 RMK A01 T01000073  RH  083%=      5-min Rain = 0
KHO1 100251Z 20006KT 10/07 A3017 RMK A01 T01000074  RH  084%=      5-min Rain = 0
KHO1 100252Z 20006KT 10/08 A3017 RMK A01 T01010075  RH  084%=      5-min Rain = 0
KHO1 100253Z 20006KT 10/08 A3017 RMK A01 T01020076  RH  084%=      5-min Rain = 0
KHO1 100254Z 20007KT 10/08 A3017 RMK A01 T01020077  RH  084%=      5-min Rain = 0
KHO1 100255Z 20006KT 10/08 A3017 RMK A01 T01030077  RH  084%=      5-min Rain = 0
KHO1 100256Z 20006KT 10/08 A3017 RMK A01 T01030078  RH  084%=      5-min Rain = 0
KHO1 100257Z 20007KT 10/08 A3017 RMK A01 T01040078  RH  084%=      5-min Rain = 0
KHO1 100258Z 20007KT 10/08 A3017 RMK A01 T01040078  RH  084%=      5-min Rain = 0
KHO1 100259Z 20007KT 10/08 A3017 RMK A01 T01040077  RH  084%=      5-min Rain = 0
KHO1 100300Z 20006KT 10/08 A3017 RMK A01 T01040078  RH  084%=      5-min Rain = 0
KHO1 100301Z 20006KT 10/08 A3017 RMK A01 T01040078  RH  084%=      5-min Rain = 0
KHO1 100302Z 20006KT 10/08 A3017 RMK A01 T01040077  RH  083%=      5-min Rain = 0
KHO1 100303Z 20006KT 10/08 A3017 RMK A01 T01040077  RH  083%=      5-min Rain = 0
KHO1 100304Z 20006KT 10/08 A3017 RMK A01 T01040077  RH  083%=      5-min Rain = 0
KHO1 100305Z 21005KT 10/08 A3017 RMK A01 T01040077  RH  083%=      5-min Rain = 0
KHO1 100306Z 21005KT 10/08 A3017 RMK A01 T01040077  RH  083%=      5-min Rain = 0
KHO1 100307Z 21006KT 10/08 A3017 RMK A01 T01040077  RH  083%=      5-min Rain = 0
KHO1 100308Z 21005KT 10/08 A3017 RMK A01 T01040077  RH  083%=      5-min Rain = 0
KHO1 100309Z 21006KT 10/08 A3017 RMK A01 T01040076  RH  083%=      5-min Rain = 0
KHO1 100310Z 21006KT 10/08 A3017 RMK A01 T01040076  RH  083%=      5-min Rain = 0
KHO1 100311Z 22006KT 10/08 A3017 RMK A01 T01040076  RH  083%=      5-min Rain = 0
KHO1 100312Z 22006KT 10/08 A3017 RMK A01 T01040076  RH  083%=      5-min Rain = 0
KHO1 100313Z 21006KT 10/08 A3017 RMK A01 T01040076  RH  083%=      5-min Rain = 0
KHO1 100314Z 21006KT 10/08 A3017 RMK A01 T01040076  RH  083%=      5-min Rain = 0
KHO1 100315Z 21006KT 10/08 A3017 RMK A01 T01040076  RH  083%=      5-min Rain = 0
KHO1 100316Z 21006KT 11/08 A3017 RMK A01 T01050076  RH  083%=      5-min Rain = 0
KHO1 100317Z 21006KT 10/08 A3017 RMK A01 T01040076  RH  083%=      5-min Rain = 0
KHO1 100318Z 21006KT 10/08 A3017 RMK A01 T01040076  RH  083%=      5-min Rain = 0
KHO1 100319Z 21006KT 10/08 A3018 RMK A01 T01040076  RH  083%=      5-min Rain = 0
KHO1 100320Z 21006KT 10/08 A3017 RMK A01 T01040076  RH  083%=      5-min Rain = 0
KHO1 100321Z 21005KT 10/08 A3018 RMK A01 T01030076  RH  083%=      5-min Rain = 0
KHO1 100322Z 21005KT 10/08 A3018 RMK A01 T01030076  RH  083%=      5-min Rain = 0
KHO1 100323Z 21005KT 10/08 A3018 RMK A01 T01030076  RH  083%=      5-min Rain = 0
KHO1 100324Z 21005KT 10/08 A3018 RMK A01 T01030076  RH  083%=      5-min Rain = 0
KHO1 100325Z 21005KT 10/08 A3018 RMK A01 T01030076  RH  084%=      5-min Rain = 0
KHO1 100326Z 22006KT 10/08 A3018 RMK A01 T01030076  RH  084%=      5-min Rain = 0
KHO1 100327Z 21006KT 10/08 A3018 RMK A01 T01030076  RH  084%=      5-min Rain = 0
KHO1 100328Z 21006KT 10/08 A3018 RMK A01 T01030077  RH  084%=      5-min Rain = 0
KHO1 100329Z 21006KT 10/08 A3018 RMK A01 T01030077  RH  084%=      5-min Rain = 0
KHO1 100330Z 21006KT 10/08 A3018 RMK A01 T01030077  RH  084%=      5-min Rain = 0
KHO1 100331Z 20006KT 10/08 A3018 RMK A01 T01030077  RH  084%=      5-min Rain = 0
KHO1 100332Z 20006KT 10/08 A3018 RMK A01 T01030078  RH  084%=      5-min Rain = 0
KHO1 100333Z 20005KT 10/08 A3018 RMK A01 T01030078  RH  084%=      5-min Rain = 0
KHO1 100334Z 20005KT 10/08 A3018 RMK A01 T01030077  RH  084%=      5-min Rain = 0
KHO1 100335Z 20005KT 10/08 A3018 RMK A01 T01030077  RH  084%=      5-min Rain = 0
KHO1 100336Z 20005KT 10/08 A3018 RMK A01 T01020077  RH  084%=      5-min Rain = 0
KHO1 100337Z 20005KT 10/08 A3018 RMK A01 T01020076  RH  084%=      5-min Rain = 0
KHO1 100338Z 19005KT 10/08 A3018 RMK A01 T01020076  RH  084%=      5-min Rain = 0
KHO1 100339Z 19004KT 10/08 A3018 RMK A01 T01010076  RH  084%=      5-min Rain = 0
KHO1 100340Z 20005KT 10/08 A3018 RMK A01 T01010076  RH  085%=      5-min Rain = 0
KHO1 100341Z 19004KT 10/08 A3018 RMK A01 T01010077  RH  085%=      5-min Rain = 0
KHO1 100342Z 20005KT 10/08 A3018 RMK A01 T01010076  RH  085%=      5-min Rain = 0
KHO1 100343Z 19005KT 10/08 A3018 RMK A01 T01010077  RH  085%=      5-min Rain = 0
KHO1 100344Z 20005KT 10/08 A3018 RMK A01 T01010077  RH  085%=      5-min Rain = 0
KHO1 100345Z 20005KT 10/08 A3017 RMK A01 T01010078  RH  085%=      5-min Rain = 0
KHO1 100346Z 20005KT 10/08 A3017 RMK A01 T01020079  RH  086%=      5-min Rain = 0
KHO1 100347Z 20005KT 10/08 A3018 RMK A01 T01020079  RH  086%=      5-min Rain = 0
KHO1 100348Z 21005KT 10/08 A3017 RMK A01 T01020080  RH  086%=      5-min Rain = 0
KHO1 100349Z 21004KT 10/08 A3017 RMK A01 T01030081  RH  086%=      5-min Rain = 0
KHO1 100350Z 21005KT 10/08 A3017 RMK A01 T01030081  RH  086%=      5-min Rain = 0
KHO1 100351Z 21005KT 10/08 A3017 RMK A01 T01040081  RH  086%=      5-min Rain = 0
KHO1 100352Z 21005KT 10/08 A3017 RMK A01 T01040081  RH  086%=      5-min Rain = 0
KHO1 100353Z 21005KT 10/08 A3017 RMK A01 T01040081  RH  085%=      5-min Rain = 0
KHO1 100354Z 21006KT 10/08 A3017 RMK A01 T01040080  RH  085%=      5-min Rain = 0
KHO1 100355Z 21005KT 10/08 A3017 RMK A01 T01040080  RH  085%=      5-min Rain = 0
KHO1 100356Z 21006KT 10/08 A3017 RMK A01 T01040080  RH  085%=      5-min Rain = 0
KHO1 100357Z 21006KT 10/08 A3017 RMK A01 T01040080  RH  085%=      5-min Rain = 0
KHO1 100358Z 21006KT 10/08 A3017 RMK A01 T01040079  RH  085%=      5-min Rain = 0
KHO1 100359Z 21006KT 10/08 A3017 RMK A01 T01040079  RH  085%=      5-min Rain = 0
KHO1 100400Z 20006KT 10/08 A3017 RMK A01 T01040080  RH  085%=      5-min Rain = 0
KHO1 100401Z 21006KT 10/08 A3017 RMK A01 T01040080  RH  085%=      5-min Rain = 0
KHO1 100402Z 20005KT 10/08 A3017 RMK A01 T01040080  RH  085%=      5-min Rain = 0
KHO1 100403Z 20006KT 10/08 A3017 RMK A01 T01040079  RH  085%=      5-min Rain = 0
KHO1 100404Z 20005KT 10/08 A3017 RMK A01 T01030079  RH  085%=      5-min Rain = 0
KHO1 100405Z 20005KT 10/08 A3017 RMK A01 T01030078  RH  085%=      5-min Rain = 0
KHO1 100406Z 20005KT 10/08 A3017 RMK A01 T01030079  RH  085%=      5-min Rain = 0
KHO1 100407Z 20005KT 10/08 A3017 RMK A01 T01020078  RH  085%=      5-min Rain = 0
KHO1 100408Z 20005KT 10/08 A3017 RMK A01 T01020079  RH  085%=      5-min Rain = 0
KHO1 100409Z 21005KT 10/08 A3017 RMK A01 T01020079  RH  085%=      5-min Rain = 0
KHO1 100410Z 21005KT 10/08 A3017 RMK A01 T01020079  RH  086%=      5-min Rain = 0
KHO1 100411Z 21005KT 10/08 A3017 RMK A01 T01020079  RH  086%=      5-min Rain = 0
KHO1 100412Z 21005KT 10/08 A3017 RMK A01 T01020079  RH  085%=      5-min Rain = 0
KHO1 100413Z 21005KT 10/08 A3017 RMK A01 T01020079  RH  085%=      5-min Rain = 0
KHO1 100414Z 21005KT 10/08 A3017 RMK A01 T01020079  RH  085%=      5-min Rain = 0
KHO1 100415Z 21005KT 10/08 A3017 RMK A01 T01020078  RH  085%=      5-min Rain = 0
KHO1 100416Z 21005KT 10/08 A3017 RMK A01 T01020079  RH  085%=      5-min Rain = 0
KHO1 100417Z 21005KT 10/08 A3017 RMK A01 T01020078  RH  085%=      5-min Rain = 0
KHO1 100418Z 21005KT 10/08 A3017 RMK A01 T01020078  RH  085%=      5-min Rain = 0
KHO1 100419Z 21005KT 10/08 A3017 RMK A01 T01010078  RH  085%=      5-min Rain = 0
KHO1 100420Z 21005KT 10/08 A3017 RMK A01 T01010078  RH  085%=      5-min Rain = 0
KHO1 100421Z 21005KT 10/08 A3017 RMK A01 T01010078  RH  085%=      5-min Rain = 0
KHO1 100422Z 21005KT 10/08 A3017 RMK A01 T01010078  RH  085%=      5-min Rain = 0
KHO1 100423Z 21005KT 10/08 A3017 RMK A01 T01010078  RH  085%=      5-min Rain = 0
KHO1 100424Z 22005KT 10/08 A3017 RMK A01 T01010077  RH  085%=      5-min Rain = 0
KHO1 100425Z 22005KT 10/08 A3017 RMK A01 T01010077  RH  085%=      5-min Rain = 0
KHO1 100426Z 22005KT 10/08 A3017 RMK A01 T01010077  RH  085%=      5-min Rain = 0
KHO1 100427Z 22006KT 10/08 A3017 RMK A01 T01010078  RH  086%=      5-min Rain = 0
KHO1 100428Z 22005KT 10/08 A3017 RMK A01 T01010078  RH  086%=      5-min Rain = 0
KHO1 100429Z 22005KT 10/08 A3017 RMK A01 T01010079  RH  086%=      5-min Rain = 0
KHO1 100430Z 23005KT 10/08 A3017 RMK A01 T01010079  RH  086%=      5-min Rain = 0
KHO1 100431Z 23005KT 10/08 A3017 RMK A01 T01020079  RH  086%=      5-min Rain = 0
KHO1 100432Z 23005KT 10/08 A3017 RMK A01 T01020079  RH  086%=      5-min Rain = 0
KHO1 100433Z 24004KT 10/08 A3018 RMK A01 T01020079  RH  085%=      5-min Rain = 0
KHO1 100434Z 24004KT 10/08 A3018 RMK A01 T01020078  RH  085%=      5-min Rain = 0
KHO1 100435Z 24004KT 10/08 A3018 RMK A01 T01020077  RH  085%=      5-min Rain = 0
KHO1 100436Z 24004KT 10/08 A3018 RMK A01 T01010077  RH  085%=      5-min Rain = 0
KHO1 100437Z 25004KT 10/08 A3018 RMK A01 T01010076  RH  085%=      5-min Rain = 0
KHO1 100438Z 26004KT 10/08 A3018 RMK A01 T01000076  RH  085%=      5-min Rain = 0
KHO1 100439Z 26004KT 10/08 A3018 RMK A01 T01000076  RH  085%=      5-min Rain = 0
KHO1 100440Z 26004KT 10/08 A3018 RMK A01 T00990076  RH  085%=      5-min Rain = 0
KHO1 100441Z 26004KT 10/08 A3018 RMK A01 T00990076  RH  085%=      5-min Rain = 0
KHO1 100442Z 26004KT 10/08 A3018 RMK A01 T00980075  RH  086%=      5-min Rain = 0
KHO1 100443Z 26004KT 10/08 A3018 RMK A01 T00980075  RH  086%=      5-min Rain = 0
KHO1 100444Z 26004KT 10/08 A3018 RMK A01 T00970075  RH  086%=      5-min Rain = 0
KHO1 100445Z 25004KT 10/08 A3017 RMK A01 T00970075  RH  087%=      5-min Rain = 0
KHO1 100446Z 25005KT 10/08 A3018 RMK A01 T00960076  RH  087%=      5-min Rain = 0
KHO1 100447Z 25005KT 10/08 A3017 RMK A01 T00960076  RH  087%=      5-min Rain = 0
KHO1 100448Z 25005KT 10/08 A3017 RMK A01 T00960077  RH  088%=      5-min Rain = 0
KHO1 100449Z 25005KT 10/08 A3017 RMK A01 T00960078  RH  088%=      5-min Rain = 0
KHO1 100450Z 25005KT 10/08 A3017 RMK A01 T00970078  RH  088%=      5-min Rain = 0
KHO1 100451Z 25005KT 10/08 A3017 RMK A01 T00960078  RH  088%=      5-min Rain = 0
KHO1 100452Z 24005KT 10/08 A3017 RMK A01 T00960077  RH  088%=      5-min Rain = 0
KHO1 100453Z 24005KT 10/08 A3017 RMK A01 T00960077  RH  088%=      5-min Rain = 0
KHO1 100454Z 25005KT 10/08 A3017 RMK A01 T00950076  RH  088%=      5-min Rain = 0
KHO1 100455Z 24005KT 10/08 A3017 RMK A01 T00950076  RH  088%=      5-min Rain = 0
KHO1 100456Z 25005KT 09/08 A3017 RMK A01 T00940076  RH  088%=      5-min Rain = 0
KHO1 100457Z 24005KT 09/08 A3017 RMK A01 T00940076  RH  088%=      5-min Rain = 0
KHO1 100458Z 24005KT 09/08 A3017 RMK A01 T00930076  RH  089%=      5-min Rain = 0
KHO1 100459Z 25005KT 09/08 A3017 RMK A01 T00930076  RH  089%=      5-min Rain = 0
KHO1 100500Z 25005KT 09/08 A3017 RMK A01 T00920076  RH  089%=      5-min Rain = 0
KHO1 100501Z 25004KT 09/08 A3017 RMK A01 T00920076  RH  090%=      5-min Rain = 0
KHO1 100502Z 25005KT 09/08 A3017 RMK A01 T00910076  RH  090%=      5-min Rain = 0
KHO1 100503Z 25004KT 09/08 A3017 RMK A01 T00910076  RH  090%=      5-min Rain = 0
KHO1 100504Z 25004KT 09/08 A3017 RMK A01 T00900076  RH  091%=      5-min Rain = 0
KHO1 100505Z 25004KT 09/08 A3017 RMK A01 T00900076  RH  091%=      5-min Rain = 0
KHO1 100506Z 25004KT 09/08 A3017 RMK A01 T00890076  RH  092%=      5-min Rain = 0
KHO1 100507Z 25005KT 09/08 A3017 RMK A01 T00890076  RH  092%=      5-min Rain = 0
KHO1 100508Z 24005KT 09/08 A3017 RMK A01 T00890076  RH  092%=      5-min Rain = 0
KHO1 100509Z 24005KT 09/08 A3017 RMK A01 T00880076  RH  092%=      5-min Rain = 0
KHO1 100510Z 24005KT 09/08 A3017 RMK A01 T00880076  RH  092%=      5-min Rain = 0
KHO1 100511Z 24005KT 09/08 A3017 RMK A01 T00880076  RH  092%=      5-min Rain = 0
KHO1 100512Z 23005KT 09/08 A3017 RMK A01 T00880077  RH  093%=      5-min Rain = 0
KHO1 100513Z 23005KT 09/08 A3017 RMK A01 T00880077  RH  093%=      5-min Rain = 0
KHO1 100514Z 23005KT 09/08 A3017 RMK A01 T00880078  RH  093%=      5-min Rain = 0
KHO1 100515Z 23005KT 09/08 A3016 RMK A01 T00890078  RH  093%=      5-min Rain = 0
KHO1 100516Z 23005KT 09/08 A3016 RMK A01 T00890078  RH  093%=      5-min Rain = 0
KHO1 100517Z 23005KT 09/08 A3016 RMK A01 T00890079  RH  093%=      5-min Rain = 0
KHO1 100518Z 23005KT 09/08 A3016 RMK A01 T00890079  RH  093%=      5-min Rain = 0
KHO1 100519Z 23005KT 09/08 A3016 RMK A01 T00890079  RH  093%=      5-min Rain = 0
KHO1 100520Z 23005KT 09/08 A3016 RMK A01 T00890079  RH  093%=      5-min Rain = 0
KHO1 100521Z 24005KT 09/08 A3016 RMK A01 T00890078  RH  093%=      5-min Rain = 0
KHO1 100522Z 24005KT 09/08 A3016 RMK A01 T00880078  RH  093%=      5-min Rain = 0
KHO1 100523Z 24005KT 09/08 A3016 RMK A01 T00880077  RH  093%=      5-min Rain = 0
KHO1 100524Z 24005KT 09/08 A3016 RMK A01 T00880077  RH  093%=      5-min Rain = 0
KHO1 100525Z 24005KT 09/08 A3016 RMK A01 T00880078  RH  093%=      5-min Rain = 0
KHO1 100526Z 25005KT 09/08 A3016 RMK A01 T00880078  RH  093%=      5-min Rain = 0
KHO1 100527Z 24005KT 09/08 A3016 RMK A01 T00870078  RH  094%=      5-min Rain = 0
KHO1 100528Z 25004KT 09/08 A3016 RMK A01 T00880078  RH  094%=      5-min Rain = 0
KHO1 100529Z 25004KT 09/08 A3016 RMK A01 T00880079  RH  094%=      5-min Rain = 0
KHO1 100530Z 25004KT 09/08 A3016 RMK A01 T00880079  RH  094%=      5-min Rain = 0
KHO1 100531Z 25004KT 09/08 A3016 RMK A01 T00880079  RH  094%=      5-min Rain = 0
KHO1 100532Z 25004KT 09/08 A3016 RMK A01 T00880079  RH  094%=      5-min Rain = 0
KHO1 100533Z 25004KT 09/08 A3016 RMK A01 T00880079  RH  094%=      5-min Rain = 0
KHO1 100534Z 25004KT 09/08 A3016 RMK A01 T00880079  RH  094%=      5-min Rain = 0
KHO1 100535Z 26004KT 09/08 A3016 RMK A01 T00890079  RH  094%=      5-min Rain = 0
KHO1 100536Z 25005KT 09/08 A3016 RMK A01 T00890079  RH  094%=      5-min Rain = 0
KHO1 100537Z 25005KT 09/08 A3016 RMK A01 T00890079  RH  094%=      5-min Rain = 0
KHO1 100538Z 25004KT 09/08 A3016 RMK A01 T00890079  RH  094%=      5-min Rain = 0
KHO1 100539Z 25005KT 09/08 A3016 RMK A01 T00890079  RH  094%=      5-min Rain = 0
KHO1 100540Z 25005KT 09/08 A3016 RMK A01 T00890079  RH  094%=      5-min Rain = 0
KHO1 100541Z 24005KT 09/08 A3016 RMK A01 T00890079  RH  094%=      5-min Rain = 0
KHO1 100542Z 24005KT 09/08 A3016 RMK A01 T00890079  RH  094%=      5-min Rain = 0
KHO1 100543Z 24005KT 09/08 A3016 RMK A01 T00890079  RH  094%=      5-min Rain = 0
KHO1 100544Z 23005KT 09/08 A3016 RMK A01 T00880078  RH  094%=      5-min Rain = 0
KHO1 100545Z 23006KT 09/08 A3016 RMK A01 T00880078  RH  093%=      5-min Rain = 0
KHO1 100546Z 24006KT 09/08 A3016 RMK A01 T00880078  RH  094%=      5-min Rain = 0
KHO1 100547Z 23005KT 09/08 A3016 RMK A01 T00880078  RH  094%=      5-min Rain = 0
KHO1 100548Z 23005KT 09/08 A3016 RMK A01 T00880078  RH  094%=      5-min Rain = 0
KHO1 100549Z 24005KT 09/08 A3016 RMK A01 T00880079  RH  094%=      5-min Rain = 0
KHO1 100550Z 24005KT 09/08 A3016 RMK A01 T00880079  RH  094%=      5-min Rain = 0
KHO1 100551Z 23004KT 09/08 A3016 RMK A01 T00880079  RH  094%=      5-min Rain = 0
KHO1 100552Z 23004KT 09/08 A3015 RMK A01 T00890079  RH  094%=      5-min Rain = 0
KHO1 100553Z 23004KT 09/08 A3015 RMK A01 T00890080  RH  094%=      5-min Rain = 0
KHO1 100554Z 23005KT 09/08 A3015 RMK A01 T00890080  RH  094%=      5-min Rain = 0
KHO1 100555Z 24004KT 09/08 A3015 RMK A01 T00900081  RH  094%=      5-min Rain = 0
KHO1 100556Z 24005KT 09/08 A3015 RMK A01 T00900081  RH  094%=      5-min Rain = 0
KHO1 100557Z 24004KT 09/08 A3015 RMK A01 T00910081  RH  094%=      5-min Rain = 0
KHO1 100558Z 24004KT 09/08 A3015 RMK A01 T00910081  RH  094%=      5-min Rain = 0
KHO1 100559Z 24004KT 09/08 A3015 RMK A01 T00910082  RH  094%=      5-min Rain = 0

Page generated in 0.0775 seconds.